Wetterdaten: Donnerstag, 05.12.2013
Datum Zeit Temp. Aussen +5cm Feuchte Auss Luftdruck Regen Sonnenschein Regendauer UV Solar Windben
05.12.2013 00:00 2,8 C 0,6 C 97 % 1029,00 hPa 0,0 l/m 0 min 0 min 0,0 UV-I 0 W/m 0,0 km/h (0 Bft)
05.12.2013 00:02 2,8 C 0,6 C 97 % 1028,90 hPa 0,0 l/m 0 min 0 min 0,0 UV-I 0 W/m 0,0 km/h (0 Bft)
05.12.2013 00:06 2,7 C 0,6 C 97 % 1028,90 hPa 0,0 l/m 0 min 0 min 0,0 UV-I 0 W/m 0,0 km/h (0 Bft)
05.12.2013 00:08 2,7 C 0,6 C 97 % 1028,90 hPa 0,0 l/m 0 min 0 min 0,0 UV-I 0 W/m 0,0 km/h (0 Bft)
05.12.2013 00:10 2,7 C 0,6 C 97 % 1028,90 hPa 0,0 l/m 0 min 0 min 0,0 UV-I 0 W/m 2,6 km/h (1 Bft)
05.12.2013 00:12 2,7 C 0,6 C 97 % 1028,80 hPa 0,0 l/m 0 min 0 min 0,0 UV-I 0 W/m 5,1 km/h (1 Bft)
05.12.2013 00:14 2,7 C 1,1 C 97 % 1028,80 hPa 0,0 l/m 0 min 0 min 0,0 UV-I 0 W/m 0,0 km/h (0 Bft)
05.12.2013 00:16 2,6 C 0,6 C 97 % 1028,80 hPa 0,0 l/m 0 min 0 min 0,0 UV-I 0 W/m 0,0 km/h (0 Bft)
05.12.2013 00:18 2,6 C 0,6 C 97 % 1028,70 hPa 0,0 l/m 0 min 0 min 0,0 UV-I 0 W/m 0,0 km/h (0 Bft)
05.12.2013 00:20 2,6 C 0,6 C 97 % 1028,80 hPa 0,0 l/m 0 min 0 min 0,0 UV-I 0 W/m 0,0 km/h (0 Bft)
05.12.2013 00:22 2,6 C 0,6 C 97 % 1028,80 hPa 0,0 l/m 0 min 0 min 0,0 UV-I 0 W/m 0,0 km/h (0 Bft)
05.12.2013 00:24 2,6 C 0,6 C 97 % 1028,90 hPa 0,0 l/m 0 min 0 min 0,0 UV-I 0 W/m 0,0 km/h (0 Bft)
05.12.2013 00:26 2,6 C 0,6 C 97 % 1028,90 hPa 0,0 l/m 0 min 0 min 0,0 UV-I 0 W/m 0,0 km/h (0 Bft)
05.12.2013 00:28 2,6 C 0,6 C 97 % 1028,90 hPa 0,0 l/m 0 min 0 min 0,0 UV-I 0 W/m 0,0 km/h (0 Bft)
05.12.2013 00:30 2,5 C 0,6 C 97 % 1028,90 hPa 0,0 l/m 0 min 0 min 0,0 UV-I 0 W/m 0,0 km/h (0 Bft)
05.12.2013 00:32 2,5 C 0,6 C 97 % 1028,90 hPa 0,0 l/m 0 min 0 min 0,0 UV-I 0 W/m 0,0 km/h (0 Bft)
05.12.2013 00:34 2,5 C 0,6 C 97 % 1028,90 hPa 0,0 l/m 0 min 0 min 0,0 UV-I 0 W/m 0,0 km/h (0 Bft)
05.12.2013 00:36 2,4 C 0,6 C 97 % 1028,90 hPa 0,0 l/m 0 min 0 min 0,0 UV-I 0 W/m 0,0 km/h (0 Bft)
05.12.2013 00:38 2,4 C 0,6 C 97 % 1028,90 hPa 0,2 l/m 0 min 0 min 0,0 UV-I 0 W/m 0,0 km/h (0 Bft)
05.12.2013 00:40 2,4 C 0,6 C 97 % 1028,80 hPa 0,0 l/m 0 min 0 min 0,0 UV-I 0 W/m 0,0 km/h (0 Bft)
05.12.2013 00:42 2,4 C 0,6 C 97 % 1028,80 hPa 0,0 l/m 0 min 0 min 0,0 UV-I 0 W/m 0,0 km/h (0 Bft)
05.12.2013 00:44 2,4 C 0,6 C 97 % 1028,80 hPa 0,0 l/m 0 min 0 min 0,0 UV-I 0 W/m 0,0 km/h (0 Bft)
05.12.2013 00:46 2,3 C 0,6 C 97 % 1028,90 hPa 0,0 l/m 0 min 0 min 0,0 UV-I 0 W/m 0,0 km/h (0 Bft)
05.12.2013 00:48 2,3 C 0,6 C 97 % 1028,80 hPa 0,0 l/m 0 min 0 min 0,0 UV-I 0 W/m 0,0 km/h (0 Bft)
05.12.2013 00:50 2,3 C 0,6 C 97 % 1028,80 hPa 0,0 l/m 0 min 0 min 0,0 UV-I 0 W/m 5,1 km/h (1 Bft)
05.12.2013 00:52 2,3 C 0,6 C 97 % 1028,80 hPa 0,0 l/m 0 min 0 min 0,0 UV-I 0 W/m 0,0 km/h (0 Bft)
05.12.2013 00:54 2,3 C 0,6 C 97 % 1028,80 hPa 0,0 l/m 0 min 0 min 0,0 UV-I 0 W/m 0,0 km/h (0 Bft)
05.12.2013 00:56 2,2 C 0,6 C 97 % 1028,80 hPa 0,0 l/m 0 min 0 min 0,0 UV-I 0 W/m 0,0 km/h (0 Bft)
05.12.2013 00:58 2,2 C 0,6 C 97 % 1028,90 hPa 0,0 l/m 0 min 0 min 0,0 UV-I 0 W/m 0,0 km/h (0 Bft)
05.12.2013 01:00 2,2 C 0,6 C 97 % 1028,80 hPa 0,0 l/m 0 min 0 min 0,0 UV-I 0 W/m 0,0 km/h (0 Bft)
05.12.2013 01:02 2,2 C 0,6 C 97 % 1028,80 hPa 0,0 l/m 0 min 0 min 0,0 UV-I 0 W/m 0,0 km/h (0 Bft)
05.12.2013 01:04 2,2 C 0,6 C 97 % 1028,80 hPa 0,0 l/m 0 min 0 min 0,0 UV-I 0 W/m 0,0 km/h (0 Bft)
05.12.2013 01:06 2,2 C 0,6 C 97 % 1028,70 hPa 0,0 l/m 0 min 0 min 0,0 UV-I 0 W/m 0,0 km/h (0 Bft)
05.12.2013 01:08 2,2 C 0,6 C 97 % 1028,80 hPa 0,0 l/m 0 min 0 min 0,0 UV-I 0 W/m 0,0 km/h (0 Bft)
05.12.2013 01:10 2,1 C 0,6 C 97 % 1028,80 hPa 0,0 l/m 0 min 0 min 0,0 UV-I 0 W/m 0,0 km/h (0 Bft)
05.12.2013 01:12 2,1 C 0,6 C 97 % 1028,80 hPa 0,0 l/m 0 min 0 min 0,0 UV-I 0 W/m 0,0 km/h (0 Bft)
05.12.2013 01:14 2,1 C 0,0 C 97 % 1028,80 hPa 0,0 l/m 0 min 0 min 0,0 UV-I 0 W/m 0,0 km/h (0 Bft)
05.12.2013 01:16 2,1 C 0,0 C 97 % 1028,90 hPa 0,0 l/m 0 min 0 min 0,0 UV-I 0 W/m 0,0 km/h (0 Bft)
05.12.2013 01:18 2,1 C 0,6 C 97 % 1028,80 hPa 0,0 l/m 0 min 0 min 0,0 UV-I 0 W/m 0,0 km/h (0 Bft)
05.12.2013 01:20 2,1 C 0,6 C 97 % 1028,80 hPa 0,0 l/m 0 min 0 min 0,0 UV-I 0 W/m 0,0 km/h (0 Bft)
05.12.2013 01:22 2,1 C 0,6 C 97 % 1028,80 hPa 0,0 l/m 0 min 0 min 0,0 UV-I 0 W/m 0,0 km/h (0 Bft)
05.12.2013 01:24 2,1 C 0,6 C 97 % 1028,80 hPa 0,0 l/m 0 min 0 min 0,0 UV-I 0 W/m 0,0 km/h (0 Bft)
05.12.2013 01:26 2,0 C 0,6 C 97 % 1028,90 hPa 0,0 l/m 0 min 0 min 0,0 UV-I 0 W/m 2,6 km/h (1 Bft)
05.12.2013 01:28 2,0 C 0,6 C 97 % 1028,90 hPa 0,0 l/m 0 min 2 min 0,0 UV-I 0 W/m 0,0 km/h (0 Bft)
05.12.2013 01:30 2,0 C 0,6 C 97 % 1028,90 hPa 0,0 l/m 0 min 0 min 0,0 UV-I 0 W/m 0,0 km/h (0 Bft)
05.12.2013 01:32 2,0 C 0,6 C 97 % 1028,90 hPa 0,0 l/m 0 min 0 min 0,0 UV-I 0 W/m 0,0 km/h (0 Bft)
05.12.2013 01:34 2,0 C 0,0 C 97 % 1028,90 hPa 0,0 l/m 0 min 0 min 0,0 UV-I 0 W/m 0,0 km/h (0 Bft)
05.12.2013 01:36 2,0 C 0,6 C 97 % 1028,90 hPa 0,0 l/m 0 min 0 min 0,0 UV-I 0 W/m 0,0 km/h (0 Bft)
05.12.2013 01:38 1,9 C 0,0 C 97 % 1028,90 hPa 0,0 l/m 0 min 0 min 0,0 UV-I 0 W/m 0,0 km/h (0 Bft)
05.12.2013 01:40 1,9 C 0,0 C 97 % 1028,90 hPa 0,0 l/m 0 min 0 min 0,0 UV-I 0 W/m 0,0 km/h (0 Bft)
05.12.2013 01:42 1,9 C 0,6 C 97 % 1028,90 hPa 0,0 l/m 0 min 0 min 0,0 UV-I 0 W/m 0,0 km/h (0 Bft)
05.12.2013 01:44 1,9 C 0,0 C 97 % 1028,80 hPa 0,0 l/m 0 min 0 min 0,0 UV-I 0 W/m 0,0 km/h (0 Bft)
05.12.2013 01:46 1,9 C 0,0 C 97 % 1028,90 hPa 0,0 l/m 0 min 0 min 0,0 UV-I 0 W/m 0,0 km/h (0 Bft)
05.12.2013 01:48 1,9 C 0,6 C 97 % 1028,90 hPa 0,0 l/m 0 min 0 min 0,0 UV-I 0 W/m 0,0 km/h (0 Bft)
05.12.2013 01:50 1,8 C 0,6 C 97 % 1028,90 hPa 0,0 l/m 0 min 0 min 0,0 UV-I 0 W/m 0,0 km/h (0 Bft)
05.12.2013 01:52 1,8 C 0,6 C 97 % 1028,80 hPa 0,0 l/m 0 min 0 min 0,0 UV-I 0 W/m 0,0 km/h (0 Bft)
05.12.2013 01:54 1,8 C 0,6 C 97 % 1028,80 hPa 0,0 l/m 0 min 0 min 0,0 UV-I 0 W/m 0,0 km/h (0 Bft)
05.12.2013 01:56 1,8 C 0,6 C 97 % 1028,70 hPa 0,0 l/m 0 min 0 min 0,0 UV-I 0 W/m 5,1 km/h (1 Bft)
05.12.2013 01:58 1,8 C 0,6 C 97 % 1028,70 hPa 0,0 l/m 0 min 0 min 0,0 UV-I 0 W/m 0,0 km/h (0 Bft)
05.12.2013 02:00 1,8 C 0,6 C 97 % 1028,70 hPa 0,0 l/m 0 min 0 min 0,0 UV-I 0 W/m 5,1 km/h (1 Bft)
05.12.2013 02:02 1,8 C 0,6 C 97 % 1028,60 hPa 0,0 l/m 0 min 0 min 0,0 UV-I 0 W/m 0,0 km/h (0 Bft)
05.12.2013 02:04 1,8 C 0,6 C 97 % 1028,70 hPa 0,0 l/m 0 min 0 min 0,0 UV-I 0 W/m 0,0 km/h (0 Bft)
05.12.2013 02:06 1,8 C 0,6 C 97 % 1028,70 hPa 0,0 l/m 0 min 0 min 0,0 UV-I 0 W/m 0,0 km/h (0 Bft)
05.12.2013 02:08 1,8 C 0,6 C 97 % 1028,70 hPa 0,0 l/m 0 min 0 min 0,0 UV-I 0 W/m 0,0 km/h (0 Bft)
05.12.2013 02:10 1,8 C 0,6 C 97 % 1028,60 hPa 0,0 l/m 0 min 0 min 0,0 UV-I 0 W/m 0,0 km/h (0 Bft)
05.12.2013 02:12 1,7 C 0,0 C 97 % 1028,60 hPa 0,0 l/m 0 min 0 min 0,0 UV-I 0 W/m 0,0 km/h (0 Bft)
05.12.2013 02:14 1,7 C 0,0 C 97 % 1028,60 hPa 0,0 l/m 0 min 0 min 0,0 UV-I 0 W/m 0,0 km/h (0 Bft)
05.12.2013 02:16 1,7 C 0,0 C 97 % 1028,60 hPa 0,0 l/m 0 min 0 min 0,0 UV-I 0 W/m 5,1 km/h (1 Bft)
05.12.2013 02:18 1,7 C 0,0 C 97 % 1028,50 hPa 0,0 l/m 0 min 0 min 0,0 UV-I 0 W/m 2,6 km/h (1 Bft)
05.12.2013 02:20 1,7 C 0,0 C 97 % 1028,50 hPa 0,0 l/m 0 min 0 min 0,0 UV-I 0 W/m 5,1 km/h (1 Bft)
05.12.2013 02:22 1,7 C 0,6 C 97 % 1028,50 hPa 0,0 l/m 0 min 0 min 0,0 UV-I 0 W/m 2,6 km/h (1 Bft)
05.12.2013 02:24 1,7 C 0,0 C 97 % 1028,60 hPa 0,0 l/m 0 min 0 min 0,0 UV-I 0 W/m 0,0 km/h (0 Bft)
05.12.2013 02:26 1,7 C 0,6 C 97 % 1028,60 hPa 0,0 l/m 0 min 0 min 0,0 UV-I 0 W/m 0,0 km/h (0 Bft)
05.12.2013 02:28 1,6 C 0,6 C 97 % 1028,60 hPa 0,0 l/m 0 min 0 min 0,0 UV-I 0 W/m 0,0 km/h (0 Bft)
05.12.2013 02:30 1,6 C 0,6 C 97 % 1028,50 hPa 0,0 l/m 0 min 0 min 0,0 UV-I 0 W/m 0,0 km/h (0 Bft)
05.12.2013 02:32 1,6 C 0,6 C 97 % 1028,60 hPa 0,0 l/m 0 min 0 min 0,0 UV-I 0 W/m 0,0 km/h (0 Bft)
05.12.2013 02:34 1,6 C 0,6 C 97 % 1028,60 hPa 0,0 l/m 0 min 0 min 0,0 UV-I 0 W/m 2,6 km/h (1 Bft)
05.12.2013 02:36 1,6 C 0,0 C 97 % 1028,60 hPa 0,0 l/m 0 min 0 min 0,0 UV-I 0 W/m 0,0 km/h (0 Bft)
05.12.2013 02:38 1,6 C 0,6 C 97 % 1028,60 hPa 0,0 l/m 0 min 0 min 0,0 UV-I 0 W/m 2,6 km/h (1 Bft)
05.12.2013 02:40 1,6 C 0,6 C 97 % 1028,60 hPa 0,0 l/m 0 min 0 min 0,0 UV-I 0 W/m 5,1 km/h (1 Bft)
05.12.2013 02:42 1,6 C 0,6 C 97 % 1028,60 hPa 0,0 l/m 0 min 0 min 0,0 UV-I 0 W/m 0,0 km/h (0 Bft)
05.12.2013 02:44 1,6 C 0,6 C 97 % 1028,60 hPa 0,0 l/m 0 min 0 min 0,0 UV-I 0 W/m 7,7 km/h (2 Bft)
05.12.2013 02:46 1,6 C 0,0 C 97 % 1028,60 hPa 0,0 l/m 0 min 0 min 0,0 UV-I 0 W/m 0,0 km/h (0 Bft)
05.12.2013 02:48 1,6 C 0,0 C 97 % 1028,60 hPa 0,0 l/m 0 min 0 min 0,0 UV-I 0 W/m 0,0 km/h (0 Bft)
05.12.2013 02:50 1,6 C 0,6 C 97 % 1028,60 hPa 0,0 l/m 0 min 0 min 0,0 UV-I 0 W/m 0,0 km/h (0 Bft)
05.12.2013 02:52 1,6 C 0,0 C 97 % 1028,70 hPa 0,0 l/m 0 min 0 min 0,0 UV-I 0 W/m 2,6 km/h (1 Bft)
05.12.2013 02:54 1,6 C 0,6 C 97 % 1028,60 hPa 0,0 l/m 0 min 0 min 0,0 UV-I 0 W/m 0,0 km/h (0 Bft)
05.12.2013 02:56 1,5 C 0,6 C 97 % 1028,50 hPa 0,0 l/m 0 min 0 min 0,0 UV-I 0 W/m 0,0 km/h (0 Bft)
05.12.2013 02:58 1,5 C 0,6 C 97 % 1028,40 hPa 0,0 l/m 0 min 0 min 0,0 UV-I 0 W/m 0,0 km/h (0 Bft)
05.12.2013 03:00 1,5 C 0,6 C 97 % 1028,40 hPa 0,0 l/m 0 min 0 min 0,0 UV-I 0 W/m 2,6 km/h (1 Bft)
05.12.2013 03:02 1,5 C 0,6 C 97 % 1028,40 hPa 0,0 l/m 0 min 0 min 0,0 UV-I 0 W/m 0,0 km/h (0 Bft)
05.12.2013 03:04 1,5 C 0,6 C 97 % 1028,40 hPa 0,0 l/m 0 min 0 min 0,0 UV-I 0 W/m 2,6 km/h (1 Bft)
05.12.2013 03:06 1,5 C 0,6 C 97 % 1028,30 hPa 0,0 l/m 0 min 0 min 0,0 UV-I 0 W/m 0,0 km/h (0 Bft)
05.12.2013 03:08 1,5 C 0,0 C 97 % 1028,30 hPa 0,0 l/m 0 min 0 min 0,0 UV-I 0 W/m 0,0 km/h (0 Bft)
05.12.2013 03:10 1,5 C 0,6 C 97 % 1028,20 hPa 0,0 l/m 0 min 0 min 0,0 UV-I 0 W/m 0,0 km/h (0 Bft)
05.12.2013 03:12 1,5 C 0,0 C 97 % 1028,20 hPa 0,0 l/m 0 min 0 min 0,0 UV-I 0 W/m 0,0 km/h (0 Bft)
05.12.2013 03:14 1,5 C 0,0 C 97 % 1028,10 hPa 0,0 l/m 0 min 0 min 0,0 UV-I 0 W/m 0,0 km/h (0 Bft)
05.12.2013 03:16 1,4 C 0,0 C 97 % 1028,10 hPa 0,0 l/m 0 min 0 min 0,0 UV-I 0 W/m 2,6 km/h (1 Bft)
05.12.2013 03:18 1,4 C 0,0 C 97 % 1028,20 hPa 0,0 l/m 0 min 0 min 0,0 UV-I 0 W/m 0,0 km/h (0 Bft)
05.12.2013 03:20 1,4 C 0,0 C 97 % 1028,10 hPa 0,0 l/m 0 min 0 min 0,0 UV-I 0 W/m 0,0 km/h (0 Bft)
05.12.2013 03:22 1,4 C 0,0 C 97 % 1028,10 hPa 0,0 l/m 0 min 0 min 0,0 UV-I 0 W/m 0,0 km/h (0 Bft)
05.12.2013 03:24 1,4 C 0,0 C 97 % 1028,00 hPa 0,0 l/m 0 min 0 min 0,0 UV-I 0 W/m 0,0 km/h (0 Bft)
05.12.2013 03:26 1,4 C 0,0 C 97 % 1028,20 hPa 0,0 l/m 0 min 0 min 0,0 UV-I 0 W/m 2,6 km/h (1 Bft)
05.12.2013 03:28 1,4 C 0,0 C 97 % 1028,10 hPa 0,0 l/m 0 min 0 min 0,0 UV-I 0 W/m 0,0 km/h (0 Bft)
05.12.2013 03:30 1,4 C 0,0 C 97 % 1028,10 hPa 0,0 l/m 0 min 0 min 0,0 UV-I 0 W/m 0,0 km/h (0 Bft)
05.12.2013 03:32 1,4 C 0,0 C 97 % 1028,00 hPa 0,0 l/m 0 min 0 min 0,0 UV-I 0 W/m 0,0 km/h (0 Bft)
05.12.2013 03:34 1,4 C 0,6 C 97 % 1028,00 hPa 0,0 l/m 0 min 0 min 0,0 UV-I 0 W/m 0,0 km/h (0 Bft)
05.12.2013 03:36 1,4 C 0,6 C 97 % 1028,00 hPa 0,0 l/m 0 min 0 min 0,0 UV-I 0 W/m 2,6 km/h (1 Bft)
05.12.2013 03:38 1,4 C 0,6 C 97 % 1028,00 hPa 0,0 l/m 0 min 0 min 0,0 UV-I 0 W/m 0,0 km/h (0 Bft)
05.12.2013 03:40 1,4 C 0,6 C 97 % 1028,00 hPa 0,0 l/m 0 min 0 min 0,0 UV-I 0 W/m 0,0 km/h (0 Bft)
05.12.2013 03:42 1,4 C 0,6 C 97 % 1028,00 hPa 0,0 l/m 0 min 0 min 0,0 UV-I 0 W/m 0,0 km/h (0 Bft)
05.12.2013 03:44 1,4 C 0,0 C 97 % 1027,90 hPa 0,0 l/m 0 min 0 min 0,0 UV-I 0 W/m 0,0 km/h (0 Bft)
05.12.2013 03:46 1,4 C 0,0 C 97 % 1027,90 hPa 0,0 l/m 0 min 0 min 0,0 UV-I 0 W/m 0,0 km/h (0 Bft)
05.12.2013 03:48 1,4 C 0,0 C 97 % 1027,90 hPa 0,0 l/m 0 min 0 min 0,0 UV-I 0 W/m 0,0 km/h (0 Bft)
05.12.2013 03:50 1,4 C 0,0 C 97 % 1027,80 hPa 0,0 l/m 0 min 0 min 0,0 UV-I 0 W/m 0,0 km/h (0 Bft)
05.12.2013 03:52 1,4 C 0,0 C 97 % 1027,70 hPa 0,0 l/m 0 min 0 min 0,0 UV-I 0 W/m 0,0 km/h (0 Bft)
05.12.2013 03:54 1,4 C 0,0 C 97 % 1027,70 hPa 0,0 l/m 0 min 0 min 0,0 UV-I 0 W/m 0,0 km/h (0 Bft)
05.12.2013 03:56 1,4 C 0,0 C 97 % 1027,80 hPa 0,0 l/m 0 min 0 min 0,0 UV-I 0 W/m 2,6 km/h (1 Bft)
05.12.2013 03:58 1,4 C 0,0 C 97 % 1027,70 hPa 0,0 l/m 0 min 0 min 0,0 UV-I 0 W/m 2,6 km/h (1 Bft)
05.12.2013 04:00 1,4 C 0,0 C 97 % 1027,60 hPa 0,0 l/m 0 min 0 min 0,0 UV-I 0 W/m 0,0 km/h (0 Bft)
05.12.2013 04:05 1,4 C 0,0 C 97 % 1027,60 hPa 0,0 l/m 0 min 0 min 0,0 UV-I 0 W/m 0,0 km/h (0 Bft)
05.12.2013 04:06 1,4 C 0,0 C 97 % 1027,70 hPa 0,0 l/m 0 min 0 min 0,0 UV-I 0 W/m 0,0 km/h (0 Bft)
05.12.2013 04:08 1,3 C 0,0 C 97 % 1027,60 hPa 0,0 l/m 0 min 0 min 0,0 UV-I 0 W/m 2,6 km/h (1 Bft)
05.12.2013 04:10 1,3 C 0,0 C 97 % 1027,60 hPa 0,0 l/m 0 min 0 min 0,0 UV-I 0 W/m 0,0 km/h (0 Bft)
05.12.2013 04:12 1,3 C 0,0 C 97 % 1027,60 hPa 0,0 l/m 0 min 0 min 0,0 UV-I 0 W/m 0,0 km/h (0 Bft)
05.12.2013 04:14 1,3 C 0,0 C 97 % 1027,70 hPa 0,0 l/m 0 min 0 min 0,0 UV-I 0 W/m 0,0 km/h (0 Bft)
05.12.2013 04:16 1,3 C 0,0 C 97 % 1027,60 hPa 0,0 l/m 0 min 0 min 0,0 UV-I 0 W/m 0,0 km/h (0 Bft)
05.12.2013 04:18 1,4 C 0,0 C 97 % 1027,60 hPa 0,0 l/m 0 min 0 min 0,0 UV-I 0 W/m 5,1 km/h (1 Bft)
05.12.2013 04:20 1,4 C 0,0 C 97 % 1027,60 hPa 0,0 l/m 0 min 0 min 0,0 UV-I 0 W/m 7,7 km/h (2 Bft)
05.12.2013 04:22 1,4 C 0,0 C 97 % 1027,60 hPa 0,0 l/m 0 min 0 min 0,0 UV-I 0 W/m 0,0 km/h (0 Bft)
05.12.2013 04:24 1,4 C 0,0 C 97 % 1027,60 hPa 0,0 l/m 0 min 0 min 0,0 UV-I 0 W/m 0,0 km/h (0 Bft)
05.12.2013 04:26 1,4 C 0,0 C 97 % 1027,60 hPa 0,0 l/m 0 min 0 min 0,0 UV-I 0 W/m 2,6 km/h (1 Bft)
05.12.2013 04:28 1,4 C 0,0 C 97 % 1027,60 hPa 0,0 l/m 0 min 0 min 0,0 UV-I 0 W/m 0,0 km/h (0 Bft)
05.12.2013 04:30 1,4 C 0,0 C 97 % 1027,70 hPa 0,0 l/m 0 min 0 min 0,0 UV-I 0 W/m 2,6 km/h (1 Bft)
05.12.2013 04:32 1,4 C 0,0 C 97 % 1027,70 hPa 0,0 l/m 0 min 0 min 0,0 UV-I 0 W/m 7,7 km/h (2 Bft)
05.12.2013 04:34 1,4 C 0,0 C 97 % 1027,70 hPa 0,0 l/m 0 min 0 min 0,0 UV-I 0 W/m 0,0 km/h (0 Bft)
05.12.2013 04:36 1,4 C 0,0 C 98 % 1027,70 hPa 0,0 l/m 0 min 0 min 0,0 UV-I 0 W/m 0,0 km/h (0 Bft)
05.12.2013 04:38 1,4 C 0,0 C 98 % 1027,60 hPa 0,0 l/m 0 min 0 min 0,0 UV-I 0 W/m 0,0 km/h (0 Bft)
05.12.2013 04:40 1,4 C 0,0 C 98 % 1027,60 hPa 0,0 l/m 0 min 0 min 0,0 UV-I 0 W/m 7,7 km/h (2 Bft)
05.12.2013 04:42 1,4 C 0,0 C 98 % 1027,60 hPa 0,0 l/m 0 min 0 min 0,0 UV-I 0 W/m 0,0 km/h (0 Bft)
05.12.2013 04:44 1,4 C 0,0 C 98 % 1027,60 hPa 0,0 l/m 0 min 0 min 0,0 UV-I 0 W/m 0,0 km/h (0 Bft)
05.12.2013 04:46 1,4 C 0,0 C 98 % 1027,60 hPa 0,0 l/m 0 min 0 min 0,0 UV-I 0 W/m 0,0 km/h (0 Bft)
05.12.2013 04:48 1,4 C 0,0 C 98 % 1027,60 hPa 0,0 l/m 0 min 0 min 0,0 UV-I 0 W/m 0,0 km/h (0 Bft)
05.12.2013 04:50 1,4 C 0,0 C 98 % 1027,50 hPa 0,0 l/m 0 min 0 min 0,0 UV-I 0 W/m 0,0 km/h (0 Bft)
05.12.2013 04:52 1,4 C 0,0 C 98 % 1027,40 hPa 0,0 l/m 0 min 0 min 0,0 UV-I 0 W/m 0,0 km/h (0 Bft)
05.12.2013 04:54 1,3 C 0,0 C 98 % 1027,40 hPa 0,0 l/m 0 min 0 min 0,0 UV-I 0 W/m 0,0 km/h (0 Bft)
05.12.2013 04:56 1,3 C 0,0 C 98 % 1027,50 hPa 0,0 l/m 0 min 0 min 0,0 UV-I 0 W/m 0,0 km/h (0 Bft)
05.12.2013 04:58 1,3 C 0,0 C 98 % 1027,40 hPa 0,0 l/m 0 min 0 min 0,0 UV-I 0 W/m 2,6 km/h (1 Bft)
05.12.2013 05:00 1,3 C 0,0 C 98 % 1027,40 hPa 0,0 l/m 0 min 0 min 0,0 UV-I 0 W/m 0,0 km/h (0 Bft)
05.12.2013 05:02 1,3 C 0,0 C 98 % 1027,40 hPa 0,0 l/m 0 min 0 min 0,0 UV-I 0 W/m 7,7 km/h (2 Bft)
05.12.2013 05:04 1,3 C 0,0 C 98 % 1027,40 hPa 0,0 l/m 0 min 0 min 0,0 UV-I 0 W/m 0,0 km/h (0 Bft)
05.12.2013 05:06 1,3 C 0,0 C 98 % 1027,40 hPa 0,0 l/m 0 min 0 min 0,0 UV-I 0 W/m 0,0 km/h (0 Bft)
05.12.2013 05:08 1,3 C 0,0 C 98 % 1027,30 hPa 0,0 l/m 0 min 0 min 0,0 UV-I 0 W/m 0,0 km/h (0 Bft)
05.12.2013 05:10 1,3 C 0,0 C 98 % 1027,30 hPa 0,0 l/m 0 min 0 min 0,0 UV-I 0 W/m 0,0 km/h (0 Bft)
05.12.2013 05:12 1,3 C 0,0 C 98 % 1027,20 hPa 0,0 l/m 0 min 0 min 0,0 UV-I 0 W/m 0,0 km/h (0 Bft)
05.12.2013 05:14 1,3 C 0,0 C 98 % 1027,20 hPa 0,0 l/m 0 min 0 min 0,0 UV-I 0 W/m 0,0 km/h (0 Bft)
05.12.2013 05:16 1,3 C 0,0 C 98 % 1027,20 hPa 0,0 l/m 0 min 0 min 0,0 UV-I 0 W/m 7,7 km/h (2 Bft)
05.12.2013 05:18 1,3 C 0,0 C 98 % 1027,30 hPa 0,0 l/m 0 min 0 min 0,0 UV-I 0 W/m 2,6 km/h (1 Bft)
05.12.2013 05:20 1,3 C 0,6 C 98 % 1027,30 hPa 0,0 l/m 0 min 0 min 0,0 UV-I 0 W/m 7,7 km/h (2 Bft)
05.12.2013 05:22 1,4 C 0,0 C 98 % 1027,20 hPa 0,0 l/m 0 min 0 min 0,0 UV-I 0 W/m 0,0 km/h (0 Bft)
05.12.2013 05:24 1,4 C 0,6 C 98 % 1027,10 hPa 0,0 l/m 0 min 0 min 0,0 UV-I 0 W/m 0,0 km/h (0 Bft)
05.12.2013 05:26 1,4 C 0,6 C 98 % 1027,10 hPa 0,0 l/m 0 min 0 min 0,0 UV-I 0 W/m 0,0 km/h (0 Bft)
05.12.2013 05:28 1,4 C 0,0 C 98 % 1027,10 hPa 0,0 l/m 0 min 0 min 0,0 UV-I 0 W/m 0,0 km/h (0 Bft)
05.12.2013 05:30 1,4 C 0,0 C 98 % 1027,00 hPa 0,0 l/m 0 min 0 min 0,0 UV-I 0 W/m 5,1 km/h (1 Bft)
05.12.2013 05:32 1,4 C 0,0 C 98 % 1027,00 hPa 0,0 l/m 0 min 0 min 0,0 UV-I 0 W/m 10,3 km/h (2 Bft)
05.12.2013 05:34 1,4 C 0,6 C 98 % 1027,00 hPa 0,0 l/m 0 min 0 min 0,0 UV-I 0 W/m 5,1 km/h (1 Bft)
05.12.2013 05:36 1,4 C 0,6 C 98 % 1027,00 hPa 0,0 l/m 0 min 0 min 0,0 UV-I 0 W/m 5,1 km/h (1 Bft)
05.12.2013 05:38 1,4 C 0,6 C 98 % 1026,90 hPa 0,0 l/m 0 min 0 min 0,0 UV-I 0 W/m 7,7 km/h (2 Bft)
05.12.2013 05:40 1,4 C 0,6 C 98 % 1026,80 hPa 0,0 l/m 0 min 0 min 0,0 UV-I 0 W/m 2,6 km/h (1 Bft)
05.12.2013 05:42 1,4 C 0,6 C 98 % 1026,90 hPa 0,0 l/m 0 min 0 min 0,0 UV-I 0 W/m 0,0 km/h (0 Bft)
05.12.2013 05:44 1,4 C 0,6 C 98 % 1026,80 hPa 0,0 l/m 0 min 0 min 0,0 UV-I 0 W/m 7,7 km/h (2 Bft)
05.12.2013 05:46 1,5 C 0,6 C 98 % 1026,80 hPa 0,0 l/m 0 min 0 min 0,0 UV-I 0 W/m 5,1 km/h (1 Bft)
05.12.2013 05:48 1,5 C 0,6 C 98 % 1026,70 hPa 0,0 l/m 0 min 0 min 0,0 UV-I 0 W/m 5,1 km/h (1 Bft)
05.12.2013 05:50 1,5 C 0,6 C 98 % 1026,70 hPa 0,0 l/m 0 min 0 min 0,0 UV-I 0 W/m 5,1 km/h (1 Bft)
05.12.2013 05:52 1,5 C 0,6 C 98 % 1026,80 hPa 0,0 l/m 0 min 0 min 0,0 UV-I 0 W/m 2,6 km/h (1 Bft)
05.12.2013 05:54 1,5 C 0,6 C 98 % 1026,80 hPa 0,0 l/m 0 min 0 min 0,0 UV-I 0 W/m 2,6 km/h (1 Bft)
05.12.2013 05:56 1,6 C 0,6 C 98 % 1026,70 hPa 0,0 l/m 0 min 0 min 0,0 UV-I 0 W/m 7,7 km/h (2 Bft)
05.12.2013 05:58 1,6 C 0,6 C 98 % 1026,70 hPa 0,0 l/m 0 min 0 min 0,0 UV-I 0 W/m 2,6 km/h (1 Bft)
05.12.2013 06:00 1,6 C 0,6 C 98 % 1026,70 hPa 0,0 l/m 0 min 0 min 0,0 UV-I 0 W/m 5,1 km/h (1 Bft)
05.12.2013 06:02 1,6 C 0,6 C 98 % 1026,70 hPa 0,0 l/m 0 min 0 min 0,0 UV-I 0 W/m 5,1 km/h (1 Bft)
05.12.2013 06:04 1,6 C 0,6 C 98 % 1026,70 hPa 0,0 l/m 0 min 0 min 0,0 UV-I 0 W/m 2,6 km/h (1 Bft)
05.12.2013 06:06 1,6 C 0,6 C 98 % 1026,70 hPa 0,0 l/m 0 min 0 min 0,0 UV-I 0 W/m 2,6 km/h (1 Bft)
05.12.2013 06:08 1,6 C 0,6 C 98 % 1026,50 hPa 0,0 l/m 0 min 0 min 0,0 UV-I 0 W/m 10,3 km/h (2 Bft)
05.12.2013 06:10 1,6 C 0,6 C 98 % 1026,50 hPa 0,0 l/m 0 min 0 min 0,0 UV-I 0 W/m 7,7 km/h (2 Bft)
05.12.2013 06:12 1,6 C 0,6 C 98 % 1026,50 hPa 0,0 l/m 0 min 0 min 0,0 UV-I 0 W/m 0,0 km/h (0 Bft)
05.12.2013 06:14 1,6 C 0,6 C 98 % 1026,60 hPa 0,0 l/m 0 min 0 min 0,0 UV-I 0 W/m 10,3 km/h (2 Bft)
05.12.2013 06:16 1,6 C 0,6 C 98 % 1026,60 hPa 0,0 l/m 0 min 0 min 0,0 UV-I 0 W/m 7,7 km/h (2 Bft)
05.12.2013 06:18 1,6 C 0,6 C 98 % 1026,50 hPa 0,0 l/m 0 min 0 min 0,0 UV-I 0 W/m 5,1 km/h (1 Bft)
05.12.2013 06:20 1,6 C 0,6 C 98 % 1026,50 hPa 0,0 l/m 0 min 0 min 0,0 UV-I 0 W/m 10,3 km/h (2 Bft)
05.12.2013 06:22 1,6 C 0,6 C 98 % 1026,40 hPa 0,0 l/m 0 min 0 min 0,0 UV-I 0 W/m 2,6 km/h (1 Bft)
05.12.2013 06:24 1,6 C 0,6 C 98 % 1026,40 hPa 0,0 l/m 0 min 0 min 0,0 UV-I 0 W/m 10,3 km/h (2 Bft)
05.12.2013 06:26 1,6 C 0,6 C 98 % 1026,30 hPa 0,0 l/m 0 min 0 min 0,0 UV-I 0 W/m 7,7 km/h (2 Bft)
05.12.2013 06:28 1,6 C 0,6 C 98 % 1026,30 hPa 0,0 l/m 0 min 0 min 0,0 UV-I 0 W/m 2,6 km/h (1 Bft)
05.12.2013 06:30 1,6 C 0,6 C 98 % 1026,20 hPa 0,0 l/m 0 min 0 min 0,0 UV-I 0 W/m 10,3 km/h (2 Bft)
05.12.2013 06:32 1,6 C 0,6 C 98 % 1026,30 hPa 0,0 l/m 0 min 0 min 0,0 UV-I 0 W/m 5,1 km/h (1 Bft)
05.12.2013 06:34 1,6 C 0,6 C 98 % 1026,30 hPa 0,0 l/m 0 min 0 min 0,0 UV-I 0 W/m 0,0 km/h (0 Bft)
05.12.2013 06:36 1,6 C 0,6 C 98 % 1026,20 hPa 0,0 l/m 0 min 0 min 0,0 UV-I 0 W/m 5,1 km/h (1 Bft)
05.12.2013 06:38 1,6 C 0,6 C 98 % 1026,20 hPa 0,0 l/m 0 min 0 min 0,0 UV-I 0 W/m 7,7 km/h (2 Bft)
05.12.2013 06:40 1,6 C 0,6 C 98 % 1026,20 hPa 0,0 l/m 0 min 0 min 0,0 UV-I 0 W/m 7,7 km/h (2 Bft)
05.12.2013 06:42 1,6 C 0,6 C 98 % 1026,10 hPa 0,0 l/m 0 min 0 min 0,0 UV-I 0 W/m 0,0 km/h (0 Bft)
05.12.2013 06:44 1,6 C 0,6 C 98 % 1026,10 hPa 0,0 l/m 0 min 0 min 0,0 UV-I 0 W/m 5,1 km/h (1 Bft)
05.12.2013 06:46 1,6 C 0,6 C 98 % 1026,10 hPa 0,0 l/m 0 min 0 min 0,0 UV-I 0 W/m 5,1 km/h (1 Bft)
05.12.2013 06:48 1,6 C 0,6 C 98 % 1026,10 hPa 0,0 l/m 0 min 0 min 0,0 UV-I 0 W/m 7,7 km/h (2 Bft)
05.12.2013 06:50 1,6 C 0,6 C 98 % 1026,10 hPa 0,0 l/m 0 min 0 min 0,0 UV-I 0 W/m 5,1 km/h (1 Bft)
05.12.2013 06:52 1,7 C 0,6 C 98 % 1025,90 hPa 0,0 l/m 0 min 0 min 0,0 UV-I 0 W/m 7,7 km/h (2 Bft)
05.12.2013 06:54 1,7 C 0,6 C 98 % 1025,90 hPa 0,0 l/m 0 min 0 min 0,0 UV-I 0 W/m 7,7 km/h (2 Bft)
05.12.2013 06:56 1,7 C 0,6 C 98 % 1025,80 hPa 0,0 l/m 0 min 0 min 0,0 UV-I 0 W/m 2,6 km/h (1 Bft)
05.12.2013 06:58 1,7 C 0,6 C 98 % 1025,80 hPa 0,0 l/m 0 min 0 min 0,0 UV-I 0 W/m 7,7 km/h (2 Bft)
05.12.2013 07:00 1,7 C 0,6 C 98 % 1025,90 hPa 0,0 l/m 0 min 0 min 0,0 UV-I 0 W/m 10,3 km/h (2 Bft)
05.12.2013 07:02 1,7 C 0,6 C 98 % 1025,80 hPa 0,0 l/m 0 min 0 min 0,0 UV-I 0 W/m 10,3 km/h (2 Bft)
05.12.2013 07:04 1,7 C 0,6 C 98 % 1025,70 hPa 0,0 l/m 0 min 0 min 0,0 UV-I 0 W/m 7,7 km/h (2 Bft)
05.12.2013 07:06 1,7 C 0,6 C 98 % 1025,60 hPa 0,0 l/m 0 min 0 min 0,0 UV-I 0 W/m 2,6 km/h (1 Bft)
05.12.2013 07:08 1,7 C 0,6 C 98 % 1025,60 hPa 0,0 l/m 0 min 0 min 0,0 UV-I 0 W/m 7,7 km/h (2 Bft)
05.12.2013 07:10 1,7 C 0,6 C 98 % 1025,60 hPa 0,0 l/m 0 min 0 min 0,0 UV-I 0 W/m 10,3 km/h (2 Bft)
05.12.2013 07:12 1,7 C 0,6 C 98 % 1025,60 hPa 0,0 l/m 0 min 0 min 0,0 UV-I 0 W/m 7,7 km/h (2 Bft)
05.12.2013 07:14 1,7 C 0,6 C 98 % 1025,50 hPa 0,0 l/m 0 min 0 min 0,0 UV-I 0 W/m 0,0 km/h (0 Bft)
05.12.2013 07:16 1,7 C 0,6 C 98 % 1025,60 hPa 0,0 l/m 0 min 0 min 0,0 UV-I 0 W/m 2,6 km/h (1 Bft)
05.12.2013 07:18 1,8 C 0,6 C 98 % 1025,50 hPa 0,0 l/m 0 min 0 min 0,0 UV-I 0 W/m 10,3 km/h (2 Bft)
05.12.2013 07:20 1,8 C 0,6 C 100 % 1025,50 hPa 0,0 l/m 0 min 0 min 0,0 UV-I 0 W/m 5,1 km/h (1 Bft)
05.12.2013 07:22 1,8 C 0,6 C 100 % 1025,50 hPa 0,0 l/m 0 min 0 min 0,0 UV-I 0 W/m 0,0 km/h (0 Bft)
05.12.2013 07:24 1,8 C 0,6 C 100 % 1025,40 hPa 0,0 l/m 0 min 0 min 0,0 UV-I 0 W/m 2,6 km/h (1 Bft)
05.12.2013 07:26 1,8 C 0,6 C 100 % 1025,30 hPa 0,0 l/m 0 min 0 min 0,0 UV-I 0 W/m 10,3 km/h (2 Bft)
05.12.2013 07:28 1,8 C 0,6 C 98 % 1025,20 hPa 0,0 l/m 0 min 0 min 0,0 UV-I 0 W/m 12,9 km/h (3 Bft)
05.12.2013 07:30 1,8 C 0,6 C 98 % 1025,20 hPa 0,0 l/m 0 min 0 min 0,0 UV-I 0 W/m 12,9 km/h (3 Bft)
05.12.2013 07:32 1,8 C 0,6 C 98 % 1025,10 hPa 0,0 l/m 0 min 0 min 0,0 UV-I 0 W/m 7,7 km/h (2 Bft)
05.12.2013 07:34 1,8 C 0,6 C 98 % 1025,10 hPa 0,0 l/m 0 min 0 min 0,0 UV-I 0 W/m 12,9 km/h (3 Bft)
05.12.2013 07:36 1,8 C 0,6 C 98 % 1025,20 hPa 0,0 l/m 0 min 0 min 0,0 UV-I 0 W/m 5,1 km/h (1 Bft)
05.12.2013 07:38 1,8 C 0,6 C 98 % 1025,20 hPa 0,0 l/m 0 min 0 min 0,0 UV-I 0 W/m 15,4 km/h (3 Bft)
05.12.2013 07:40 1,8 C 0,6 C 98 % 1025,10 hPa 0,0 l/m 0 min 0 min 0,0 UV-I 0 W/m 12,9 km/h (3 Bft)
05.12.2013 07:42 1,9 C 0,6 C 98 % 1025,10 hPa 0,0 l/m 0 min 0 min 0,0 UV-I 0 W/m 7,7 km/h (2 Bft)
05.12.2013 07:44 1,9 C 0,6 C 98 % 1025,10 hPa 0,0 l/m 0 min 0 min 0,0 UV-I 0 W/m 7,7 km/h (2 Bft)
05.12.2013 07:46 1,9 C 0,6 C 98 % 1025,10 hPa 0,0 l/m 0 min 0 min 0,0 UV-I 0 W/m 10,3 km/h (2 Bft)
05.12.2013 07:48 1,9 C 0,6 C 98 % 1025,10 hPa 0,0 l/m 0 min 0 min 0,0 UV-I 0 W/m 5,1 km/h (1 Bft)
05.12.2013 07:50 1,9 C 0,6 C 98 % 1025,00 hPa 0,0 l/m 0 min 0 min 0,0 UV-I 0 W/m 7,7 km/h (2 Bft)
05.12.2013 07:52 1,9 C 1,1 C 98 % 1024,90 hPa 0,0 l/m 0 min 0 min 0,0 UV-I 0 W/m 10,3 km/h (2 Bft)
05.12.2013 07:54 1,9 C 1,1 C 98 % 1024,80 hPa 0,0 l/m 0 min 0 min 0,0 UV-I 0 W/m 7,7 km/h (2 Bft)
05.12.2013 07:56 1,9 C 1,1 C 98 % 1024,70 hPa 0,0 l/m 0 min 0 min 0,0 UV-I 0 W/m 15,4 km/h (3 Bft)
05.12.2013 07:58 1,9 C 1,1 C 98 % 1024,60 hPa 0,0 l/m 0 min 0 min 0,0 UV-I 0 W/m 12,9 km/h (3 Bft)
05.12.2013 08:00 2,0 C 1,1 C 98 % 1024,60 hPa 0,0 l/m 0 min 0 min 0,0 UV-I 0 W/m 12,9 km/h (3 Bft)
05.12.2013 08:02 2,0 C 1,1 C 98 % 1024,50 hPa 0,0 l/m 0 min 0 min 0,0 UV-I 0 W/m 15,4 km/h (3 Bft)
05.12.2013 08:04 2,0 C 1,1 C 98 % 1024,40 hPa 0,0 l/m 0 min 0 min 0,0 UV-I 0 W/m 2,6 km/h (1 Bft)
05.12.2013 08:06 2,0 C 1,1 C 98 % 1024,40 hPa 0,0 l/m 0 min 0 min 0,0 UV-I 0 W/m 0,0 km/h (0 Bft)
05.12.2013 08:08 2,0 C 1,1 C 98 % 1024,40 hPa 0,0 l/m 0 min 0 min 0,0 UV-I 0 W/m 12,9 km/h (3 Bft)
05.12.2013 08:10 2,0 C 1,1 C 98 % 1024,40 hPa 0,0 l/m 0 min 0 min 0,0 UV-I 0 W/m 5,1 km/h (1 Bft)
05.12.2013 08:12 2,0 C 1,1 C 98 % 1024,40 hPa 0,0 l/m 0 min 0 min 0,0 UV-I 5 W/m 7,7 km/h (2 Bft)
05.12.2013 08:14 2,0 C 1,1 C 98 % 1024,30 hPa 0,0 l/m 0 min 0 min 0,0 UV-I 7 W/m 2,6 km/h (1 Bft)
05.12.2013 08:16 2,1 C 1,1 C 98 % 1024,30 hPa 0,0 l/m 0 min 0 min 0,0 UV-I 9 W/m 10,3 km/h (2 Bft)
05.12.2013 08:18 2,1 C 1,1 C 98 % 1024,20 hPa 0,0 l/m 0 min 0 min 0,0 UV-I 11 W/m 12,9 km/h (3 Bft)
05.12.2013 08:20 2,1 C 1,1 C 98 % 1024,30 hPa 0,0 l/m 0 min 0 min 0,0 UV-I 11 W/m 2,6 km/h (1 Bft)
05.12.2013 08:22 2,1 C 1,1 C 98 % 1024,20 hPa 0,0 l/m 0 min 0 min 0,0 UV-I 11 W/m 20,6 km/h (4 Bft)
05.12.2013 08:24 2,1 C 1,1 C 98 % 1024,30 hPa 0,0 l/m 0 min 0 min 0,0 UV-I 11 W/m 0,0 km/h (0 Bft)
05.12.2013 08:26 2,1 C 1,1 C 98 % 1024,20 hPa 0,0 l/m 0 min 0 min 0,0 UV-I 12 W/m 7,7 km/h (2 Bft)
05.12.2013 08:28 2,1 C 1,1 C 98 % 1024,20 hPa 0,0 l/m 0 min 0 min 0,0 UV-I 12 W/m 10,3 km/h (2 Bft)
05.12.2013 08:30 2,1 C 1,1 C 98 % 1024,20 hPa 0,0 l/m 0 min 0 min 0,0 UV-I 14 W/m 2,6 km/h (1 Bft)
05.12.2013 08:32 2,1 C 1,1 C 98 % 1024,10 hPa 0,0 l/m 0 min 0 min 0,0 UV-I 16 W/m 15,4 km/h (3 Bft)
05.12.2013 08:34 2,1 C 1,1 C 98 % 1024,10 hPa 0,0 l/m 0 min 0 min 0,0 UV-I 18 W/m 15,4 km/h (3 Bft)
05.12.2013 08:36 2,1 C 1,1 C 98 % 1024,10 hPa 0,0 l/m 0 min 0 min 0,0 UV-I 19 W/m 2,6 km/h (1 Bft)
05.12.2013 08:38 2,1 C 1,1 C 98 % 1024,20 hPa 0,0 l/m 0 min 0 min 0,0 UV-I 21 W/m 10,3 km/h (2 Bft)
05.12.2013 08:40 2,1 C 1,1 C 98 % 1024,20 hPa 0,0 l/m 0 min 0 min 0,0 UV-I 25 W/m 10,3 km/h (2 Bft)
05.12.2013 08:42 2,1 C 1,1 C 98 % 1024,20 hPa 0,0 l/m 0 min 0 min 0,0 UV-I 25 W/m 10,3 km/h (2 Bft)
05.12.2013 08:44 2,1 C 1,1 C 98 % 1024,10 hPa 0,0 l/m 0 min 0 min 0,0 UV-I 28 W/m 10,3 km/h (2 Bft)
05.12.2013 08:46 2,1 C 1,1 C 98 % 1024,10 hPa 0,0 l/m 2 min 0 min 0,0 UV-I 30 W/m 0,0 km/h (0 Bft)
05.12.2013 08:48 2,1 C 1,1 C 98 % 1024,00 hPa 0,0 l/m 2 min 0 min 0,0 UV-I 32 W/m 18,0 km/h (3 Bft)
05.12.2013 08:50 2,1 C 1,1 C 98 % 1024,10 hPa 0,0 l/m 2 min 0 min 0,0 UV-I 33 W/m 7,7 km/h (2 Bft)
05.12.2013 08:52 2,1 C 1,1 C 98 % 1023,90 hPa 0,0 l/m 2 min 0 min 0,0 UV-I 35 W/m 12,9 km/h (3 Bft)
05.12.2013 08:54 2,2 C 1,1 C 98 % 1023,90 hPa 0,0 l/m 2 min 0 min 0,0 UV-I 35 W/m 15,4 km/h (3 Bft)
05.12.2013 08:56 2,2 C 1,1 C 98 % 1023,80 hPa 0,0 l/m 2 min 0 min 0,0 UV-I 42 W/m 2,6 km/h (1 Bft)
05.12.2013 08:58 2,2 C 1,1 C 98 % 1023,80 hPa 0,0 l/m 2 min 0 min 0,0 UV-I 47 W/m 10,3 km/h (2 Bft)
05.12.2013 09:00 2,2 C 1,1 C 98 % 1023,70 hPa 0,0 l/m 2 min 0 min 0,0 UV-I 51 W/m 10,3 km/h (2 Bft)
05.12.2013 09:02 2,2 C 1,1 C 98 % 1023,60 hPa 0,0 l/m 2 min 0 min 0,0 UV-I 54 W/m 10,3 km/h (2 Bft)
05.12.2013 09:04 2,2 C 1,1 C 98 % 1023,60 hPa 0,0 l/m 2 min 0 min 0,0 UV-I 53 W/m 7,7 km/h (2 Bft)
05.12.2013 09:06 2,2 C 1,7 C 98 % 1023,60 hPa 0,0 l/m 2 min 0 min 0,0 UV-I 54 W/m 12,9 km/h (3 Bft)
05.12.2013 09:08 2,3 C 1,7 C 98 % 1023,40 hPa 0,0 l/m 2 min 0 min 0,0 UV-I 53 W/m 0,0 km/h (0 Bft)
05.12.2013 09:10 2,3 C 1,7 C 98 % 1023,20 hPa 0,0 l/m 2 min 0 min 0,0 UV-I 49 W/m 10,3 km/h (2 Bft)
05.12.2013 09:12 2,3 C 1,7 C 98 % 1023,30 hPa 0,0 l/m 0 min 0 min 0,0 UV-I 42 W/m 20,6 km/h (4 Bft)
05.12.2013 09:14 2,3 C 1,7 C 98 % 1023,50 hPa 0,0 l/m 0 min 0 min 0,0 UV-I 42 W/m 12,9 km/h (3 Bft)
05.12.2013 09:16 2,3 C 1,7 C 98 % 1023,40 hPa 0,0 l/m 0 min 0 min 0,0 UV-I 42 W/m 20,6 km/h (4 Bft)
05.12.2013 09:18 2,3 C 1,7 C 98 % 1023,20 hPa 0,0 l/m 0 min 0 min 0,0 UV-I 42 W/m 25,7 km/h (4 Bft)
05.12.2013 09:20 2,4 C 1,7 C 98 % 1023,20 hPa 0,0 l/m 0 min 0 min 0,0 UV-I 44 W/m 12,9 km/h (3 Bft)
05.12.2013 09:22 2,4 C 1,7 C 98 % 1023,10 hPa 0,0 l/m 0 min 0 min 0,0 UV-I 44 W/m 10,3 km/h (2 Bft)
05.12.2013 09:24 2,4 C 1,7 C 98 % 1023,00 hPa 0,0 l/m 0 min 0 min 0,0 UV-I 46 W/m 2,6 km/h (1 Bft)
05.12.2013 09:26 2,4 C 1,7 C 98 % 1023,00 hPa 0,0 l/m 0 min 0 min 0,0 UV-I 47 W/m 10,3 km/h (2 Bft)
05.12.2013 09:28 2,4 C 1,7 C 98 % 1023,00 hPa 0,0 l/m 0 min 0 min 0,0 UV-I 47 W/m 10,3 km/h (2 Bft)
05.12.2013 09:30 2,4 C 1,7 C 98 % 1023,00 hPa 0,0 l/m 0 min 0 min 0,0 UV-I 47 W/m 10,3 km/h (2 Bft)
05.12.2013 09:32 2,4 C 1,7 C 98 % 1023,00 hPa 0,0 l/m 0 min 0 min 0,0 UV-I 49 W/m 15,4 km/h (3 Bft)
05.12.2013 09:34 2,4 C 1,7 C 98 % 1022,90 hPa 0,0 l/m 0 min 0 min 0,0 UV-I 49 W/m 10,3 km/h (2 Bft)
05.12.2013 09:36 2,4 C 1,7 C 98 % 1023,00 hPa 0,0 l/m 0 min 0 min 0,0 UV-I 49 W/m 5,1 km/h (1 Bft)
05.12.2013 09:38 2,5 C 1,7 C 98 % 1023,00 hPa 0,0 l/m 0 min 0 min 0,0 UV-I 47 W/m 18,0 km/h (3 Bft)
05.12.2013 09:40 2,5 C 1,7 C 98 % 1023,00 hPa 0,0 l/m 0 min 0 min 0,0 UV-I 47 W/m 10,3 km/h (2 Bft)
05.12.2013 09:42 2,5 C 1,7 C 98 % 1023,20 hPa 0,0 l/m 0 min 0 min 0,0 UV-I 47 W/m 10,3 km/h (2 Bft)
05.12.2013 09:44 2,5 C 1,7 C 98 % 1023,00 hPa 0,0 l/m 0 min 0 min 0,0 UV-I 47 W/m 12,9 km/h (3 Bft)
05.12.2013 09:46 2,5 C 1,7 C 98 % 1023,00 hPa 0,0 l/m 0 min 0 min 0,0 UV-I 51 W/m 12,9 km/h (3 Bft)
05.12.2013 09:48 2,6 C 1,7 C 98 % 1022,90 hPa 0,0 l/m 0 min 0 min 0,0 UV-I 54 W/m 18,0 km/h (3 Bft)
05.12.2013 09:50 2,6 C 1,7 C 98 % 1022,80 hPa 0,0 l/m 0 min 2 min 0,0 UV-I 56 W/m 33,5 km/h (5 Bft)
05.12.2013 09:52 2,6 C 1,7 C 98 % 1023,00 hPa 0,0 l/m 0 min 0 min 0,0 UV-I 58 W/m 7,7 km/h (2 Bft)
05.12.2013 09:54 2,6 C 1,7 C 98 % 1023,00 hPa 0,0 l/m 0 min 0 min 0,0 UV-I 60 W/m 23,2 km/h (4 Bft)
05.12.2013 09:56 2,7 C 1,7 C 98 % 1023,10 hPa 0,0 l/m 0 min 0 min 0,0 UV-I 60 W/m 20,6 km/h (4 Bft)
05.12.2013 09:58 2,7 C 1,7 C 98 % 1023,10 hPa 0,0 l/m 0 min 0 min 0,0 UV-I 60 W/m 18,0 km/h (3 Bft)
05.12.2013 10:00 2,7 C 2,2 C 98 % 1023,20 hPa 0,0 l/m 0 min 2 min 0,0 UV-I 56 W/m 15,4 km/h (3 Bft)
05.12.2013 10:02 2,8 C 2,2 C 98 % 1023,40 hPa 0,0 l/m 0 min 0 min 0,0 UV-I 54 W/m 33,5 km/h (5 Bft)
05.12.2013 10:04 2,8 C 2,2 C 98 % 1023,00 hPa 0,0 l/m 0 min 2 min 0,0 UV-I 54 W/m 25,7 km/h (4 Bft)
05.12.2013 10:06 2,9 C 2,2 C 98 % 1022,80 hPa 0,0 l/m 0 min 0 min 0,0 UV-I 54 W/m 15,4 km/h (3 Bft)
05.12.2013 10:08 2,9 C 2,2 C 97 % 1022,80 hPa 0,0 l/m 0 min 2 min 0,0 UV-I 54 W/m 20,6 km/h (4 Bft)
05.12.2013 10:10 2,9 C 2,2 C 97 % 1022,70 hPa 0,0 l/m 0 min 0 min 0,0 UV-I 54 W/m 25,7 km/h (4 Bft)
05.12.2013 10:12 2,9 C 2,2 C 98 % 1022,80 hPa 0,0 l/m 0 min 2 min 0,0 UV-I 56 W/m 20,6 km/h (4 Bft)
05.12.2013 10:14 3,0 C 2,2 C 97 % 1022,90 hPa 0,0 l/m 0 min 0 min 0,0 UV-I 56 W/m 18,0 km/h (3 Bft)
05.12.2013 10:16 3,0 C 2,2 C 97 % 1022,90 hPa 0,0 l/m 0 min 0 min 0,0 UV-I 58 W/m 5,1 km/h (1 Bft)
05.12.2013 10:18 3,0 C 2,2 C 97 % 1022,60 hPa 0,0 l/m 0 min 0 min 0,0 UV-I 62 W/m 18,0 km/h (3 Bft)
05.12.2013 10:20 3,1 C 2,2 C 97 % 1022,70 hPa 0,0 l/m 0 min 2 min 0,0 UV-I 63 W/m 33,5 km/h (5 Bft)
05.12.2013 10:22 3,1 C 2,2 C 97 % 1022,60 hPa 0,0 l/m 0 min 0 min 0,0 UV-I 67 W/m 18,0 km/h (3 Bft)
05.12.2013 10:24 3,1 C 2,2 C 97 % 1022,50 hPa 0,0 l/m 0 min 0 min 0,0 UV-I 67 W/m 15,4 km/h (3 Bft)
05.12.2013 10:26 3,1 C 2,2 C 96 % 1022,40 hPa 0,0 l/m 0 min 2 min 0,0 UV-I 70 W/m 18,0 km/h (3 Bft)
05.12.2013 10:28 3,1 C 2,2 C 96 % 1022,20 hPa 0,0 l/m 0 min 0 min 0,0 UV-I 76 W/m 12,9 km/h (3 Bft)
05.12.2013 10:30 3,1 C 2,2 C 96 % 1022,30 hPa 0,0 l/m 0 min 0 min 0,0 UV-I 77 W/m 18,0 km/h (3 Bft)
05.12.2013 10:32 3,1 C 2,2 C 96 % 1022,20 hPa 0,0 l/m 0 min 0 min 0,0 UV-I 81 W/m 25,7 km/h (4 Bft)
05.12.2013 10:34 3,1 C 2,2 C 96 % 1022,20 hPa 0,0 l/m 0 min 0 min 0,0 UV-I 79 W/m 18,0 km/h (3 Bft)
05.12.2013 10:36 3,1 C 2,2 C 95 % 1022,20 hPa 0,0 l/m 0 min 0 min 0,0 UV-I 81 W/m 7,7 km/h (2 Bft)
05.12.2013 10:38 3,1 C 2,2 C 95 % 1022,40 hPa 0,0 l/m 0 min 0 min 0,0 UV-I 79 W/m 12,9 km/h (3 Bft)
05.12.2013 10:40 3,1 C 2,2 C 95 % 1022,30 hPa 0,0 l/m 0 min 0 min 0,0 UV-I 81 W/m 18,0 km/h (3 Bft)
05.12.2013 10:42 3,0 C 2,2 C 95 % 1022,30 hPa 0,0 l/m 0 min 0 min 0,0 UV-I 81 W/m 18,0 km/h (3 Bft)
05.12.2013 10:44 3,0 C 2,2 C 95 % 1022,10 hPa 0,0 l/m 0 min 2 min 0,0 UV-I 88 W/m 20,6 km/h (4 Bft)
05.12.2013 10:46 3,0 C 2,2 C 95 % 1022,20 hPa 0,0 l/m 0 min 2 min 0,0 UV-I 88 W/m 23,2 km/h (4 Bft)
05.12.2013 10:48 3,0 C 2,2 C 94 % 1022,20 hPa 0,0 l/m 0 min 0 min 0,0 UV-I 93 W/m 28,3 km/h (4 Bft)
05.12.2013 10:50 3,0 C 2,2 C 94 % 1022,10 hPa 0,0 l/m 0 min 2 min 0,0 UV-I 95 W/m 25,7 km/h (4 Bft)
05.12.2013 10:52 3,0 C 2,2 C 94 % 1022,00 hPa 0,0 l/m 0 min 2 min 0,0 UV-I 90 W/m 15,4 km/h (3 Bft)
05.12.2013 10:54 3,0 C 2,2 C 94 % 1022,00 hPa 0,0 l/m 0 min 0 min 0,0 UV-I 88 W/m 20,6 km/h (4 Bft)
05.12.2013 10:56 3,0 C 2,2 C 94 % 1022,00 hPa 0,0 l/m 0 min 0 min 0,0 UV-I 81 W/m 10,3 km/h (2 Bft)
05.12.2013 10:58 3,0 C 2,2 C 94 % 1022,00 hPa 0,0 l/m 0 min 0 min 0,0 UV-I 83 W/m 12,9 km/h (3 Bft)
05.12.2013 11:00 3,0 C 2,2 C 94 % 1022,00 hPa 0,0 l/m 0 min 0 min 0,0 UV-I 86 W/m 20,6 km/h (4 Bft)
05.12.2013 11:06 3,1 C 2,2 C 94 % 1021,80 hPa 0,0 l/m 0 min 0 min 0,0 UV-I 77 W/m 28,3 km/h (4 Bft)
05.12.2013 11:08 3,1 C 2,2 C 94 % 1021,80 hPa 0,0 l/m 0 min 0 min 0,0 UV-I 81 W/m 12,9 km/h (3 Bft)
05.12.2013 11:10 3,1 C 2,2 C 94 % 1021,60 hPa 0,0 l/m 0 min 0 min 0,0 UV-I 69 W/m 25,7 km/h (4 Bft)
05.12.2013 11:12 3,2 C 2,2 C 94 % 1021,50 hPa 0,0 l/m 0 min 0 min 0,0 UV-I 79 W/m 12,9 km/h (3 Bft)
05.12.2013 11:14 3,2 C 2,2 C 94 % 1021,40 hPa 0,0 l/m 0 min 0 min 0,0 UV-I 83 W/m 0,0 km/h (0 Bft)
05.12.2013 11:16 3,2 C 2,2 C 94 % 1021,20 hPa 0,0 l/m 0 min 0 min 0,0 UV-I 83 W/m 23,2 km/h (4 Bft)
05.12.2013 11:18 3,2 C 2,2 C 94 % 1021,10 hPa 0,0 l/m 0 min 0 min 0,0 UV-I 72 W/m 18,0 km/h (3 Bft)
05.12.2013 11:20 3,2 C 2,2 C 94 % 1020,90 hPa 0,0 l/m 0 min 0 min 0,0 UV-I 76 W/m 25,7 km/h (4 Bft)
05.12.2013 11:22 3,2 C 2,2 C 94 % 1021,00 hPa 0,0 l/m 0 min 0 min 0,0 UV-I 83 W/m 28,3 km/h (4 Bft)
05.12.2013 11:24 3,3 C 2,2 C 94 % 1020,80 hPa 0,0 l/m 0 min 2 min 0,0 UV-I 90 W/m 15,4 km/h (3 Bft)
05.12.2013 11:26 3,3 C 2,2 C 94 % 1020,60 hPa 0,0 l/m 0 min 0 min 0,0 UV-I 86 W/m 25,7 km/h (4 Bft)
05.12.2013 11:28 3,3 C 2,2 C 93 % 1020,50 hPa 0,0 l/m 0 min 0 min 0,0 UV-I 84 W/m 28,3 km/h (4 Bft)
05.12.2013 11:30 3,4 C 2,2 C 93 % 1020,40 hPa 0,0 l/m 0 min 0 min 0,0 UV-I 77 W/m 23,2 km/h (4 Bft)
05.12.2013 11:32 3,4 C 2,8 C 93 % 1020,30 hPa 0,0 l/m 0 min 0 min 0,0 UV-I 84 W/m 20,6 km/h (4 Bft)
05.12.2013 11:34 3,4 C 2,8 C 93 % 1020,20 hPa 0,0 l/m 0 min 0 min 0,0 UV-I 77 W/m 20,6 km/h (4 Bft)
05.12.2013 11:36 3,4 C 2,8 C 93 % 1020,40 hPa 0,0 l/m 0 min 0 min 0,0 UV-I 84 W/m 18,0 km/h (3 Bft)
05.12.2013 11:38 3,4 C 2,8 C 93 % 1020,00 hPa 0,0 l/m 0 min 0 min 0,0 UV-I 86 W/m 15,4 km/h (3 Bft)
05.12.2013 11:40 3,5 C 2,8 C 93 % 1020,00 hPa 0,0 l/m 0 min 0 min 0,0 UV-I 84 W/m 20,6 km/h (4 Bft)
05.12.2013 11:42 3,6 C 2,8 C 93 % 1019,90 hPa 0,0 l/m 0 min 0 min 0,0 UV-I 81 W/m 20,6 km/h (4 Bft)
05.12.2013 11:44 3,6 C 2,8 C 93 % 1019,70 hPa 0,0 l/m 0 min 0 min 0,0 UV-I 79 W/m 23,2 km/h (4 Bft)
05.12.2013 11:46 3,6 C 2,8 C 93 % 1019,50 hPa 0,0 l/m 0 min 0 min 0,0 UV-I 76 W/m 28,3 km/h (4 Bft)
05.12.2013 11:48 3,7 C 2,8 C 93 % 1019,50 hPa 0,0 l/m 0 min 0 min 0,0 UV-I 77 W/m 12,9 km/h (3 Bft)
05.12.2013 11:50 3,7 C 2,8 C 92 % 1019,40 hPa 0,0 l/m 0 min 0 min 0,0 UV-I 77 W/m 20,6 km/h (4 Bft)
05.12.2013 11:52 3,7 C 2,8 C 93 % 1019,40 hPa 0,0 l/m 0 min 0 min 0,0 UV-I 70 W/m 10,3 km/h (2 Bft)
05.12.2013 11:54 3,7 C 2,8 C 92 % 1019,30 hPa 0,0 l/m 0 min 0 min 0,0 UV-I 67 W/m 28,3 km/h (4 Bft)
05.12.2013 11:56 3,8 C 2,8 C 92 % 1019,60 hPa 0,0 l/m 0 min 0 min 0,0 UV-I 63 W/m 38,6 km/h (5 Bft)
05.12.2013 11:58 3,8 C 2,8 C 92 % 1019,40 hPa 0,0 l/m 0 min 0 min 0,0 UV-I 65 W/m 18,0 km/h (3 Bft)
05.12.2013 12:00 3,8 C 2,8 C 92 % 1019,20 hPa 0,0 l/m 0 min 0 min 0,0 UV-I 69 W/m 18,0 km/h (3 Bft)
05.12.2013 12:02 3,9 C 2,8 C 92 % 1019,20 hPa 0,0 l/m 0 min 0 min 0,0 UV-I 69 W/m 28,3 km/h (4 Bft)
05.12.2013 12:04 3,9 C 2,8 C 92 % 1019,00 hPa 0,0 l/m 0 min 0 min 0,0 UV-I 70 W/m 12,9 km/h (3 Bft)
05.12.2013 12:06 3,9 C 2,8 C 91 % 1019,00 hPa 0,0 l/m 0 min 0 min 0,0 UV-I 70 W/m 25,7 km/h (4 Bft)
05.12.2013 12:08 3,9 C 2,8 C 91 % 1018,90 hPa 0,0 l/m 0 min 0 min 0,0 UV-I 65 W/m 25,7 km/h (4 Bft)
05.12.2013 12:10 4,0 C 2,8 C 91 % 1018,80 hPa 0,0 l/m 0 min 0 min 0,0 UV-I 62 W/m 25,7 km/h (4 Bft)
05.12.2013 12:12 4,0 C 2,8 C 91 % 1018,50 hPa 0,0 l/m 0 min 0 min 0,0 UV-I 56 W/m 36,0 km/h (5 Bft)
05.12.2013 12:14 4,1 C 2,8 C 91 % 1018,60 hPa 0,0 l/m 0 min 2 min 0,0 UV-I 51 W/m 30,9 km/h (5 Bft)
05.12.2013 12:16 4,1 C 2,8 C 91 % 1018,50 hPa 0,0 l/m 0 min 0 min 0,0 UV-I 49 W/m 20,6 km/h (4 Bft)
05.12.2013 12:18 4,1 C 2,8 C 90 % 1018,40 hPa 0,0 l/m 0 min 0 min 0,0 UV-I 49 W/m 25,7 km/h (4 Bft)
05.12.2013 12:20 4,1 C 2,8 C 90 % 1018,30 hPa 0,0 l/m 0 min 0 min 0,0 UV-I 49 W/m 12,9 km/h (3 Bft)
05.12.2013 12:22 4,1 C 2,8 C 90 % 1018,40 hPa 0,0 l/m 0 min 0 min 0,0 UV-I 49 W/m 12,9 km/h (3 Bft)
05.12.2013 12:24 4,1 C 2,8 C 90 % 1018,30 hPa 0,0 l/m 0 min 0 min 0,0 UV-I 49 W/m 33,5 km/h (5 Bft)
05.12.2013 12:26 4,1 C 3,3 C 90 % 1018,30 hPa 0,0 l/m 0 min 0 min 0,0 UV-I 51 W/m 38,6 km/h (5 Bft)
05.12.2013 12:28 4,2 C 3,3 C 90 % 1018,30 hPa 0,0 l/m 0 min 0 min 0,0 UV-I 53 W/m 7,7 km/h (2 Bft)
05.12.2013 12:30 4,2 C 3,3 C 90 % 1018,30 hPa 0,0 l/m 0 min 0 min 0,0 UV-I 54 W/m 20,6 km/h (4 Bft)
05.12.2013 12:32 4,2 C 3,3 C 89 % 1018,10 hPa 0,0 l/m 0 min 0 min 0,0 UV-I 56 W/m 28,3 km/h (4 Bft)
05.12.2013 12:34 4,2 C 3,3 C 89 % 1018,10 hPa 0,0 l/m 0 min 0 min 0,0 UV-I 54 W/m 15,4 km/h (3 Bft)
05.12.2013 12:36 4,3 C 3,3 C 89 % 1018,00 hPa 0,0 l/m 0 min 0 min 0,0 UV-I 56 W/m 18,0 km/h (3 Bft)
05.12.2013 12:38 4,3 C 3,3 C 89 % 1018,30 hPa 0,0 l/m 0 min 0 min 0,0 UV-I 54 W/m 23,2 km/h (4 Bft)
05.12.2013 12:40 4,3 C 3,3 C 89 % 1018,10 hPa 0,0 l/m 0 min 0 min 0,0 UV-I 54 W/m 25,7 km/h (4 Bft)
05.12.2013 12:42 4,3 C 3,3 C 88 % 1017,90 hPa 0,0 l/m 0 min 0 min 0,0 UV-I 56 W/m 46,3 km/h (6 Bft)
05.12.2013 12:44 4,4 C 3,3 C 88 % 1017,70 hPa 0,0 l/m 0 min 0 min 0,0 UV-I 54 W/m 12,9 km/h (3 Bft)
05.12.2013 12:46 4,4 C 3,3 C 88 % 1017,60 hPa 0,0 l/m 0 min 0 min 0,0 UV-I 53 W/m 38,6 km/h (5 Bft)
05.12.2013 12:48 4,4 C 3,3 C 88 % 1017,50 hPa 0,0 l/m 0 min 0 min 0,0 UV-I 49 W/m 23,2 km/h (4 Bft)
05.12.2013 12:50 4,4 C 3,3 C 88 % 1017,20 hPa 0,0 l/m 0 min 0 min 0,0 UV-I 49 W/m 38,6 km/h (5 Bft)
05.12.2013 12:52 4,4 C 3,3 C 88 % 1017,10 hPa 0,0 l/m 0 min 0 min 0,0 UV-I 51 W/m 28,3 km/h (4 Bft)
05.12.2013 12:54 4,4 C 3,3 C 88 % 1017,10 hPa 0,0 l/m 0 min 0 min 0,0 UV-I 51 W/m 36,0 km/h (5 Bft)
05.12.2013 12:56 4,5 C 3,3 C 87 % 1016,60 hPa 0,0 l/m 0 min 0 min 0,0 UV-I 47 W/m 18,0 km/h (3 Bft)
05.12.2013 12:58 4,5 C 3,3 C 87 % 1016,50 hPa 0,0 l/m 0 min 0 min 0,0 UV-I 47 W/m 43,8 km/h (6 Bft)
05.12.2013 13:00 4,5 C 3,3 C 87 % 1016,60 hPa 0,0 l/m 0 min 0 min 0,0 UV-I 46 W/m 36,0 km/h (5 Bft)
05.12.2013 13:02 4,6 C 3,3 C 87 % 1016,40 hPa 0,0 l/m 0 min 0 min 0,0 UV-I 44 W/m 20,6 km/h (4 Bft)
05.12.2013 13:04 4,6 C 3,3 C 87 % 1016,40 hPa 0,0 l/m 0 min 0 min 0,0 UV-I 46 W/m 43,8 km/h (6 Bft)
05.12.2013 13:06 4,6 C 3,3 C 87 % 1016,30 hPa 0,0 l/m 0 min 0 min 0,0 UV-I 51 W/m 25,7 km/h (4 Bft)
05.12.2013 13:08 4,6 C 3,3 C 87 % 1016,40 hPa 0,0 l/m 0 min 0 min 0,0 UV-I 51 W/m 12,9 km/h (3 Bft)
05.12.2013 13:10 4,6 C 3,3 C 87 % 1016,40 hPa 0,0 l/m 0 min 0 min 0,0 UV-I 49 W/m 30,9 km/h (5 Bft)
05.12.2013 13:12 4,6 C 3,3 C 86 % 1016,30 hPa 0,0 l/m 0 min 0 min 0,0 UV-I 49 W/m 41,2 km/h (6 Bft)
05.12.2013 13:14 4,7 C 3,3 C 86 % 1016,20 hPa 0,0 l/m 0 min 0 min 0,0 UV-I 51 W/m 25,7 km/h (4 Bft)
05.12.2013 13:16 4,7 C 3,3 C 86 % 1015,90 hPa 0,0 l/m 0 min 0 min 0,0 UV-I 51 W/m 38,6 km/h (5 Bft)
05.12.2013 13:18 4,7 C 3,3 C 86 % 1016,30 hPa 0,0 l/m 0 min 0 min 0,0 UV-I 51 W/m 30,9 km/h (5 Bft)
05.12.2013 13:20 4,7 C 3,3 C 86 % 1016,10 hPa 0,0 l/m 0 min 0 min 0,0 UV-I 47 W/m 46,3 km/h (6 Bft)
05.12.2013 13:22 4,7 C 3,3 C 86 % 1016,10 hPa 0,0 l/m 0 min 0 min 0,0 UV-I 42 W/m 30,9 km/h (5 Bft)
05.12.2013 13:24 4,8 C 3,3 C 86 % 1015,80 hPa 0,0 l/m 0 min 0 min 0,0 UV-I 37 W/m 25,7 km/h (4 Bft)
05.12.2013 13:26 4,8 C 3,3 C 86 % 1015,60 hPa 0,0 l/m 0 min 0 min 0,0 UV-I 35 W/m 25,7 km/h (4 Bft)
05.12.2013 13:28 4,8 C 3,3 C 86 % 1015,60 hPa 0,0 l/m 0 min 0 min 0,0 UV-I 33 W/m 33,5 km/h (5 Bft)
05.12.2013 13:30 4,8 C 3,3 C 85 % 1015,40 hPa 0,0 l/m 0 min 0 min 0,0 UV-I 32 W/m 43,8 km/h (6 Bft)
05.12.2013 13:32 4,8 C 3,3 C 85 % 1015,10 hPa 0,0 l/m 0 min 0 min 0,0 UV-I 30 W/m 43,8 km/h (6 Bft)
05.12.2013 13:34 4,8 C 3,3 C 85 % 1015,00 hPa 0,0 l/m 0 min 0 min 0,0 UV-I 28 W/m 25,7 km/h (4 Bft)
05.12.2013 13:36 4,8 C 3,3 C 85 % 1014,60 hPa 0,0 l/m 0 min 0 min 0,0 UV-I 28 W/m 41,2 km/h (6 Bft)
05.12.2013 13:38 4,8 C 3,3 C 85 % 1014,60 hPa 0,0 l/m 0 min 0 min 0,0 UV-I 30 W/m 23,2 km/h (4 Bft)
05.12.2013 13:40 4,8 C 3,3 C 85 % 1014,90 hPa 0,0 l/m 0 min 0 min 0,0 UV-I 32 W/m 46,3 km/h (6 Bft)
05.12.2013 13:42 4,8 C 3,3 C 85 % 1014,50 hPa 0,0 l/m 0 min 0 min 0,0 UV-I 32 W/m 36,0 km/h (5 Bft)
05.12.2013 13:44 4,8 C 3,3 C 85 % 1014,40 hPa 0,0 l/m 0 min 0 min 0,0 UV-I 32 W/m 25,7 km/h (4 Bft)
05.12.2013 13:46 4,8 C 3,3 C 85 % 1014,40 hPa 0,0 l/m 0 min 0 min 0,0 UV-I 32 W/m 43,8 km/h (6 Bft)
05.12.2013 13:48 4,8 C 3,3 C 85 % 1014,00 hPa 0,0 l/m 0 min 0 min 0,0 UV-I 30 W/m 12,9 km/h (3 Bft)
05.12.2013 13:50 4,8 C 3,3 C 85 % 1014,10 hPa 0,0 l/m 0 min 0 min 0,0 UV-I 30 W/m 36,0 km/h (5 Bft)
05.12.2013 13:52 4,8 C 3,3 C 85 % 1014,30 hPa 0,0 l/m 0 min 0 min 0,0 UV-I 28 W/m 41,2 km/h (6 Bft)
05.12.2013 13:54 4,8 C 3,3 C 85 % 1013,90 hPa 0,0 l/m 0 min 0 min 0,0 UV-I 32 W/m 38,6 km/h (5 Bft)
05.12.2013 13:56 4,8 C 3,3 C 85 % 1013,70 hPa 0,0 l/m 0 min 0 min 0,0 UV-I 32 W/m 20,6 km/h (4 Bft)
05.12.2013 13:58 4,8 C 3,3 C 85 % 1013,50 hPa 0,0 l/m 0 min 0 min 0,0 UV-I 33 W/m 23,2 km/h (4 Bft)
05.12.2013 14:00 4,8 C 3,3 C 85 % 1013,60 hPa 0,0 l/m 0 min 0 min 0,0 UV-I 35 W/m 36,0 km/h (5 Bft)
05.12.2013 14:02 4,9 C 3,9 C 85 % 1013,80 hPa 0,0 l/m 0 min 0 min 0,0 UV-I 35 W/m 56,6 km/h (7 Bft)
05.12.2013 14:04 4,9 C 3,9 C 85 % 1013,20 hPa 0,0 l/m 0 min 0 min 0,0 UV-I 37 W/m 46,3 km/h (6 Bft)
05.12.2013 14:06 4,9 C 3,9 C 85 % 1013,40 hPa 0,0 l/m 0 min 0 min 0,0 UV-I 33 W/m 41,2 km/h (6 Bft)
05.12.2013 14:08 4,9 C 3,9 C 84 % 1013,30 hPa 0,0 l/m 0 min 0 min 0,0 UV-I 35 W/m 38,6 km/h (5 Bft)
05.12.2013 14:10 4,9 C 3,9 C 84 % 1013,40 hPa 0,0 l/m 0 min 0 min 0,0 UV-I 35 W/m 54,1 km/h (7 Bft)
05.12.2013 14:12 4,9 C 3,9 C 85 % 1013,30 hPa 0,0 l/m 0 min 0 min 0,0 UV-I 33 W/m 41,2 km/h (6 Bft)
05.12.2013 14:14 4,9 C 3,9 C 85 % 1013,40 hPa 0,0 l/m 0 min 0 min 0,0 UV-I 33 W/m 38,6 km/h (5 Bft)
05.12.2013 14:16 5,0 C 3,9 C 85 % 1013,20 hPa 0,0 l/m 0 min 0 min 0,0 UV-I 33 W/m 28,3 km/h (4 Bft)
05.12.2013 14:18 5,0 C 3,9 C 85 % 1013,10 hPa 0,0 l/m 0 min 0 min 0,0 UV-I 35 W/m 41,2 km/h (6 Bft)
05.12.2013 14:20 5,0 C 3,9 C 84 % 1013,00 hPa 0,0 l/m 0 min 0 min 0,0 UV-I 33 W/m 28,3 km/h (4 Bft)
05.12.2013 14:22 5,0 C 3,9 C 84 % 1012,90 hPa 0,0 l/m 0 min 0 min 0,0 UV-I 33 W/m 33,5 km/h (5 Bft)
05.12.2013 14:24 5,0 C 3,9 C 85 % 1013,10 hPa 0,0 l/m 0 min 0 min 0,0 UV-I 33 W/m 43,8 km/h (6 Bft)
05.12.2013 14:26 5,1 C 3,9 C 84 % 1013,00 hPa 0,0 l/m 0 min 0 min 0,0 UV-I 33 W/m 25,7 km/h (4 Bft)
05.12.2013 14:28 5,1 C 3,9 C 84 % 1012,80 hPa 0,0 l/m 0 min 0 min 0,0 UV-I 32 W/m 38,6 km/h (5 Bft)
05.12.2013 14:30 5,1 C 3,9 C 84 % 1012,50 hPa 0,0 l/m 0 min 0 min 0,0 UV-I 30 W/m 23,2 km/h (4 Bft)
05.12.2013 14:32 5,1 C 3,9 C 84 % 1012,70 hPa 0,0 l/m 0 min 0 min 0,0 UV-I 28 W/m 30,9 km/h (5 Bft)
05.12.2013 14:34 5,1 C 3,9 C 84 % 1012,50 hPa 0,0 l/m 0 min 0 min 0,0 UV-I 25 W/m 25,7 km/h (4 Bft)
05.12.2013 14:36 5,1 C 3,9 C 84 % 1012,50 hPa 0,0 l/m 0 min 0 min 0,0 UV-I 23 W/m 20,6 km/h (4 Bft)
05.12.2013 14:38 5,1 C 3,9 C 84 % 1012,20 hPa 0,0 l/m 0 min 0 min 0,0 UV-I 19 W/m 33,5 km/h (5 Bft)
05.12.2013 14:40 5,1 C 3,9 C 84 % 1012,10 hPa 0,0 l/m 0 min 0 min 0,0 UV-I 21 W/m 33,5 km/h (5 Bft)
05.12.2013 14:42 5,1 C 3,9 C 84 % 1012,00 hPa 0,0 l/m 0 min 0 min 0,0 UV-I 21 W/m 33,5 km/h (5 Bft)
05.12.2013 14:44 5,1 C 3,9 C 84 % 1012,30 hPa 0,0 l/m 0 min 0 min 0,0 UV-I 21 W/m 30,9 km/h (5 Bft)
05.12.2013 14:46 5,2 C 3,9 C 84 % 1012,10 hPa 0,0 l/m 0 min 0 min 0,0 UV-I 19 W/m 25,7 km/h (4 Bft)
05.12.2013 14:48 5,2 C 3,9 C 84 % 1012,00 hPa 0,0 l/m 0 min 0 min 0,0 UV-I 21 W/m 20,6 km/h (4 Bft)
05.12.2013 14:50 5,2 C 3,9 C 84 % 1012,20 hPa 0,0 l/m 0 min 0 min 0,0 UV-I 21 W/m 41,2 km/h (6 Bft)
05.12.2013 14:52 5,2 C 3,9 C 84 % 1011,90 hPa 0,0 l/m 0 min 0 min 0,0 UV-I 21 W/m 30,9 km/h (5 Bft)
05.12.2013 14:54 5,2 C 3,9 C 84 % 1012,10 hPa 0,0 l/m 0 min 0 min 0,0 UV-I 19 W/m 46,3 km/h (6 Bft)
05.12.2013 14:56 5,3 C 3,9 C 84 % 1011,70 hPa 0,0 l/m 0 min 0 min 0,0 UV-I 19 W/m 43,8 km/h (6 Bft)
05.12.2013 14:58 5,3 C 3,9 C 84 % 1011,80 hPa 0,0 l/m 0 min 2 min 0,0 UV-I 19 W/m 30,9 km/h (5 Bft)
05.12.2013 15:00 5,3 C 3,9 C 84 % 1011,60 hPa 0,0 l/m 0 min 2 min 0,0 UV-I 19 W/m 25,7 km/h (4 Bft)
05.12.2013 15:02 5,3 C 3,9 C 84 % 1011,70 hPa 0,0 l/m 0 min 2 min 0,0 UV-I 18 W/m 46,3 km/h (6 Bft)
05.12.2013 15:04 5,3 C 3,9 C 84 % 1011,50 hPa 0,0 l/m 0 min 2 min 0,0 UV-I 16 W/m 36,0 km/h (5 Bft)
05.12.2013 15:06 5,3 C 3,3 C 84 % 1011,90 hPa 0,0 l/m 0 min 2 min 0,0 UV-I 16 W/m 23,2 km/h (4 Bft)
05.12.2013 15:08 5,3 C 3,3 C 85 % 1011,80 hPa 0,0 l/m 0 min 2 min 0,0 UV-I 14 W/m 41,2 km/h (6 Bft)
05.12.2013 15:10 5,3 C 3,3 C 85 % 1011,80 hPa 0,0 l/m 0 min 2 min 0,0 UV-I 12 W/m 51,5 km/h (7 Bft)
05.12.2013 15:12 5,3 C 3,3 C 85 % 1012,00 hPa 0,0 l/m 0 min 2 min 0,0 UV-I 12 W/m 20,6 km/h (4 Bft)
05.12.2013 15:14 5,3 C 3,3 C 85 % 1012,10 hPa 0,0 l/m 0 min 2 min 0,0 UV-I 11 W/m 28,3 km/h (4 Bft)
05.12.2013 15:16 5,3 C 3,3 C 86 % 1012,10 hPa 0,0 l/m 0 min 2 min 0,0 UV-I 9 W/m 33,5 km/h (5 Bft)
05.12.2013 15:18 5,3 C 3,3 C 86 % 1012,00 hPa 0,0 l/m 0 min 2 min 0,0 UV-I 9 W/m 33,5 km/h (5 Bft)
05.12.2013 15:20 5,3 C 3,3 C 86 % 1011,90 hPa 0,2 l/m 0 min 2 min 0,0 UV-I 9 W/m 30,9 km/h (5 Bft)
05.12.2013 15:22 5,3 C 2,8 C 86 % 1011,90 hPa 0,0 l/m 0 min 2 min 0,0 UV-I 7 W/m 33,5 km/h (5 Bft)
05.12.2013 15:24 5,2 C 2,8 C 87 % 1011,80 hPa 0,0 l/m 0 min 2 min 0,0 UV-I 7 W/m 30,9 km/h (5 Bft)
05.12.2013 15:26 5,2 C 2,8 C 87 % 1011,80 hPa 0,0 l/m 0 min 2 min 0,0 UV-I 7 W/m 28,3 km/h (4 Bft)
05.12.2013 15:28 5,2 C 2,8 C 87 % 1011,70 hPa 0,2 l/m 0 min 2 min 0,0 UV-I 7 W/m 23,2 km/h (4 Bft)
05.12.2013 15:30 5,2 C 2,8 C 87 % 1011,80 hPa 0,0 l/m 0 min 2 min 0,0 UV-I 9 W/m 28,3 km/h (4 Bft)
05.12.2013 15:32 5,2 C 2,8 C 88 % 1011,70 hPa 0,0 l/m 0 min 2 min 0,0 UV-I 9 W/m 51,5 km/h (7 Bft)
05.12.2013 15:34 5,2 C 2,8 C 88 % 1011,50 hPa 0,0 l/m 0 min 2 min 0,0 UV-I 9 W/m 33,5 km/h (5 Bft)
05.12.2013 15:36 5,1 C 2,8 C 88 % 1011,60 hPa 0,0 l/m 0 min 2 min 0,0 UV-I 9 W/m 28,3 km/h (4 Bft)
05.12.2013 15:38 5,1 C 2,8 C 88 % 1011,50 hPa 0,2 l/m 0 min 2 min 0,0 UV-I 7 W/m 56,6 km/h (7 Bft)
05.12.2013 15:40 5,1 C 2,8 C 88 % 1011,50 hPa 0,0 l/m 0 min 2 min 0,0 UV-I 7 W/m 48,9 km/h (6 Bft)
05.12.2013 15:42 5,1 C 2,8 C 89 % 1011,30 hPa 0,0 l/m 0 min 2 min 0,0 UV-I 7 W/m 46,3 km/h (6 Bft)
05.12.2013 15:44 5,1 C 2,8 C 89 % 1011,40 hPa 0,0 l/m 0 min 2 min 0,0 UV-I 9 W/m 36,0 km/h (5 Bft)
05.12.2013 15:46 5,1 C 2,8 C 89 % 1011,30 hPa 0,0 l/m 0 min 2 min 0,0 UV-I 9 W/m 43,8 km/h (6 Bft)
05.12.2013 15:48 5,1 C 2,8 C 89 % 1011,20 hPa 0,0 l/m 0 min 2 min 0,0 UV-I 9 W/m 43,8 km/h (6 Bft)
05.12.2013 15:50 5,1 C 2,8 C 89 % 1011,20 hPa 0,0 l/m 0 min 2 min 0,0 UV-I 7 W/m 30,9 km/h (5 Bft)
05.12.2013 15:52 5,1 C 2,8 C 89 % 1011,00 hPa 0,0 l/m 0 min 2 min 0,0 UV-I 7 W/m 28,3 km/h (4 Bft)
05.12.2013 15:54 5,1 C 2,8 C 90 % 1011,00 hPa 0,0 l/m 0 min 2 min 0,0 UV-I 5 W/m 25,7 km/h (4 Bft)
05.12.2013 15:56 5,1 C 2,8 C 90 % 1011,00 hPa 0,0 l/m 0 min 2 min 0,0 UV-I 5 W/m 36,0 km/h (5 Bft)
05.12.2013 15:58 5,1 C 3,3 C 90 % 1011,10 hPa 0,0 l/m 0 min 2 min 0,0 UV-I 0 W/m 28,3 km/h (4 Bft)
05.12.2013 16:00 5,1 C 3,3 C 90 % 1011,50 hPa 0,0 l/m 0 min 2 min 0,0 UV-I 0 W/m 46,3 km/h (6 Bft)
05.12.2013 16:02 5,2 C 3,3 C 90 % 1010,90 hPa 0,0 l/m 0 min 2 min 0,0 UV-I 0 W/m 25,7 km/h (4 Bft)
05.12.2013 16:04 5,2 C 3,3 C 90 % 1011,10 hPa 0,2 l/m 0 min 2 min 0,0 UV-I 0 W/m 38,6 km/h (5 Bft)
05.12.2013 16:06 5,2 C 3,3 C 90 % 1010,70 hPa 0,0 l/m 0 min 2 min 0,0 UV-I 0 W/m 41,2 km/h (6 Bft)
05.12.2013 16:08 5,2 C 3,3 C 90 % 1010,60 hPa 0,0 l/m 0 min 2 min 0,0 UV-I 0 W/m 28,3 km/h (4 Bft)
05.12.2013 16:10 5,3 C 3,3 C 90 % 1010,50 hPa 0,0 l/m 0 min 2 min 0,0 UV-I 0 W/m 25,7 km/h (4 Bft)
05.12.2013 16:12 5,3 C 3,3 C 90 % 1010,40 hPa 0,0 l/m 0 min 2 min 0,0 UV-I 0 W/m 28,3 km/h (4 Bft)
05.12.2013 16:14 5,3 C 3,3 C 90 % 1011,10 hPa 0,0 l/m 0 min 2 min 0,0 UV-I 0 W/m 33,5 km/h (5 Bft)
05.12.2013 16:16 5,3 C 3,3 C 90 % 1010,50 hPa 0,0 l/m 0 min 2 min 0,0 UV-I 0 W/m 43,8 km/h (6 Bft)
05.12.2013 16:18 5,3 C 3,3 C 90 % 1010,30 hPa 0,0 l/m 0 min 2 min 0,0 UV-I 0 W/m 18,0 km/h (3 Bft)
05.12.2013 16:20 5,3 C 3,3 C 90 % 1010,40 hPa 0,0 l/m 0 min 2 min 0,0 UV-I 0 W/m 41,2 km/h (6 Bft)
05.12.2013 16:22 5,4 C 3,3 C 89 % 1010,40 hPa 0,0 l/m 0 min 2 min 0,0 UV-I 0 W/m 33,5 km/h (5 Bft)
05.12.2013 16:24 5,4 C 3,3 C 89 % 1010,10 hPa 0,0 l/m 0 min 2 min 0,0 UV-I 0 W/m 28,3 km/h (4 Bft)
05.12.2013 16:26 5,4 C 3,3 C 89 % 1010,60 hPa 0,0 l/m 0 min 2 min 0,0 UV-I 0 W/m 36,0 km/h (5 Bft)
05.12.2013 16:28 5,5 C 3,3 C 89 % 1010,20 hPa 0,0 l/m 0 min 2 min 0,0 UV-I 0 W/m 33,5 km/h (5 Bft)
05.12.2013 16:30 5,5 C 3,3 C 89 % 1010,20 hPa 0,0 l/m 0 min 2 min 0,0 UV-I 0 W/m 30,9 km/h (5 Bft)
05.12.2013 16:32 5,6 C 3,3 C 89 % 1010,10 hPa 0,0 l/m 0 min 2 min 0,0 UV-I 0 W/m 30,9 km/h (5 Bft)
05.12.2013 16:34 5,6 C 3,3 C 89 % 1010,20 hPa 0,0 l/m 0 min 2 min 0,0 UV-I 0 W/m 23,2 km/h (4 Bft)
05.12.2013 16:36 5,6 C 3,3 C 89 % 1010,30 hPa 0,0 l/m 0 min 2 min 0,0 UV-I 0 W/m 30,9 km/h (5 Bft)
05.12.2013 16:38 5,6 C 3,3 C 89 % 1010,10 hPa 0,0 l/m 0 min 2 min 0,0 UV-I 0 W/m 36,0 km/h (5 Bft)
05.12.2013 16:40 5,7 C 3,3 C 89 % 1010,00 hPa 0,0 l/m 0 min 2 min 0,0 UV-I 0 W/m 38,6 km/h (5 Bft)
05.12.2013 16:42 5,7 C 3,3 C 89 % 1010,00 hPa 0,0 l/m 0 min 2 min 0,0 UV-I 0 W/m 41,2 km/h (6 Bft)
05.12.2013 16:44 5,7 C 3,3 C 89 % 1010,10 hPa 0,0 l/m 0 min 2 min 0,0 UV-I 0 W/m 23,2 km/h (4 Bft)
05.12.2013 16:46 5,7 C 3,3 C 89 % 1009,90 hPa 0,0 l/m 0 min 2 min 0,0 UV-I 0 W/m 20,6 km/h (4 Bft)
05.12.2013 16:48 5,7 C 3,3 C 89 % 1010,10 hPa 0,0 l/m 0 min 2 min 0,0 UV-I 0 W/m 30,9 km/h (5 Bft)
05.12.2013 16:50 5,7 C 3,3 C 89 % 1010,00 hPa 0,0 l/m 0 min 2 min 0,0 UV-I 0 W/m 25,7 km/h (4 Bft)
05.12.2013 16:52 5,7 C 3,3 C 89 % 1009,80 hPa 0,0 l/m 0 min 2 min 0,0 UV-I 0 W/m 36,0 km/h (5 Bft)
05.12.2013 16:54 5,8 C 3,9 C 89 % 1009,90 hPa 0,0 l/m 0 min 2 min 0,0 UV-I 0 W/m 23,2 km/h (4 Bft)
05.12.2013 16:56 5,8 C 3,9 C 89 % 1009,60 hPa 0,0 l/m 0 min 2 min 0,0 UV-I 0 W/m 18,0 km/h (3 Bft)
05.12.2013 16:58 5,8 C 3,9 C 89 % 1009,70 hPa 0,0 l/m 0 min 2 min 0,0 UV-I 0 W/m 43,8 km/h (6 Bft)
05.12.2013 17:00 5,8 C 3,9 C 89 % 1009,30 hPa 0,0 l/m 0 min 2 min 0,0 UV-I 0 W/m 25,7 km/h (4 Bft)
05.12.2013 17:02 5,9 C 3,9 C 89 % 1009,40 hPa 0,0 l/m 0 min 2 min 0,0 UV-I 0 W/m 28,3 km/h (4 Bft)
05.12.2013 17:04 5,9 C 3,9 C 89 % 1009,60 hPa 0,0 l/m 0 min 2 min 0,0 UV-I 0 W/m 28,3 km/h (4 Bft)
05.12.2013 17:06 5,9 C 3,9 C 89 % 1009,30 hPa 0,0 l/m 0 min 2 min 0,0 UV-I 0 W/m 38,6 km/h (5 Bft)
05.12.2013 17:08 6,0 C 3,9 C 89 % 1009,30 hPa 0,0 l/m 0 min 2 min 0,0 UV-I 0 W/m 36,0 km/h (5 Bft)
05.12.2013 17:10 6,0 C 3,9 C 89 % 1008,90 hPa 0,0 l/m 0 min 2 min 0,0 UV-I 0 W/m 41,2 km/h (6 Bft)
05.12.2013 17:12 6,1 C 3,9 C 89 % 1009,20 hPa 0,0 l/m 0 min 2 min 0,0 UV-I 0 W/m 25,7 km/h (4 Bft)
05.12.2013 17:14 6,1 C 3,9 C 89 % 1009,20 hPa 0,0 l/m 0 min 2 min 0,0 UV-I 0 W/m 30,9 km/h (5 Bft)
05.12.2013 17:16 6,1 C 3,9 C 89 % 1009,00 hPa 0,0 l/m 0 min 2 min 0,0 UV-I 0 W/m 23,2 km/h (4 Bft)
05.12.2013 17:18 6,1 C 3,9 C 89 % 1009,20 hPa 0,0 l/m 0 min 2 min 0,0 UV-I 0 W/m 38,6 km/h (5 Bft)
05.12.2013 17:20 6,1 C 3,9 C 89 % 1008,80 hPa 0,0 l/m 0 min 2 min 0,0 UV-I 0 W/m 20,6 km/h (4 Bft)
05.12.2013 17:22 6,2 C 3,9 C 89 % 1009,30 hPa 0,0 l/m 0 min 2 min 0,0 UV-I 0 W/m 28,3 km/h (4 Bft)
05.12.2013 17:24 6,2 C 4,4 C 89 % 1009,30 hPa 0,0 l/m 0 min 2 min 0,0 UV-I 0 W/m 38,6 km/h (5 Bft)
05.12.2013 17:26 6,2 C 4,4 C 89 % 1008,90 hPa 0,0 l/m 0 min 2 min 0,0 UV-I 0 W/m 30,9 km/h (5 Bft)
05.12.2013 17:28 6,3 C 4,4 C 89 % 1009,00 hPa 0,0 l/m 0 min 2 min 0,0 UV-I 0 W/m 23,2 km/h (4 Bft)
05.12.2013 17:30 6,3 C 4,4 C 89 % 1009,10 hPa 0,0 l/m 0 min 2 min 0,0 UV-I 0 W/m 46,3 km/h (6 Bft)
05.12.2013 17:32 6,3 C 4,4 C 89 % 1009,10 hPa 0,0 l/m 0 min 2 min 0,0 UV-I 0 W/m 30,9 km/h (5 Bft)
05.12.2013 17:34 6,4 C 4,4 C 89 % 1008,90 hPa 0,0 l/m 0 min 2 min 0,0 UV-I 0 W/m 25,7 km/h (4 Bft)
05.12.2013 17:36 6,4 C 4,4 C 89 % 1008,80 hPa 0,0 l/m 0 min 2 min 0,0 UV-I 0 W/m 25,7 km/h (4 Bft)
05.12.2013 17:38 6,4 C 4,4 C 89 % 1009,00 hPa 0,0 l/m 0 min 2 min 0,0 UV-I 0 W/m 28,3 km/h (4 Bft)
05.12.2013 17:40 6,4 C 4,4 C 89 % 1008,80 hPa 0,0 l/m 0 min 2 min 0,0 UV-I 0 W/m 36,0 km/h (5 Bft)
05.12.2013 17:42 6,4 C 4,4 C 89 % 1008,90 hPa 0,2 l/m 0 min 2 min 0,0 UV-I 0 W/m 43,8 km/h (6 Bft)
05.12.2013 17:44 6,4 C 4,4 C 90 % 1008,80 hPa 0,0 l/m 0 min 2 min 0,0 UV-I 0 W/m 36,0 km/h (5 Bft)
05.12.2013 17:46 6,4 C 4,4 C 90 % 1008,60 hPa 0,0 l/m 0 min 2 min 0,0 UV-I 0 W/m 33,5 km/h (5 Bft)
05.12.2013 17:48 6,4 C 4,4 C 90 % 1008,80 hPa 0,0 l/m 0 min 2 min 0,0 UV-I 0 W/m 46,3 km/h (6 Bft)
05.12.2013 17:50 6,4 C 4,4 C 90 % 1008,60 hPa 0,0 l/m 0 min 2 min 0,0 UV-I 0 W/m 38,6 km/h (5 Bft)
05.12.2013 17:52 6,4 C 4,4 C 90 % 1008,70 hPa 0,0 l/m 0 min 2 min 0,0 UV-I 0 W/m 23,2 km/h (4 Bft)
05.12.2013 17:54 6,4 C 4,4 C 90 % 1008,70 hPa 0,2 l/m 0 min 2 min 0,0 UV-I 0 W/m 30,9 km/h (5 Bft)
05.12.2013 17:56 6,4 C 4,4 C 91 % 1008,80 hPa 0,0 l/m 0 min 2 min 0,0 UV-I 0 W/m 54,1 km/h (7 Bft)
05.12.2013 17:58 6,4 C 4,4 C 91 % 1008,90 hPa 0,0 l/m 0 min 2 min 0,0 UV-I 0 W/m 56,6 km/h (7 Bft)
05.12.2013 18:00 6,4 C 4,4 C 91 % 1008,90 hPa 0,0 l/m 0 min 2 min 0,0 UV-I 0 W/m 56,6 km/h (7 Bft)
05.12.2013 18:02 6,4 C 4,4 C 91 % 1008,70 hPa 0,0 l/m 0 min 2 min 0,0 UV-I 0 W/m 30,9 km/h (5 Bft)
05.12.2013 18:04 6,4 C 4,4 C 92 % 1008,80 hPa 0,0 l/m 0 min 2 min 0,0 UV-I 0 W/m 33,5 km/h (5 Bft)
05.12.2013 18:06 6,4 C 4,4 C 92 % 1008,80 hPa 0,0 l/m 0 min 2 min 0,0 UV-I 0 W/m 33,5 km/h (5 Bft)
05.12.2013 18:08 6,4 C 4,4 C 92 % 1008,60 hPa 0,2 l/m 0 min 2 min 0,0 UV-I 0 W/m 41,2 km/h (6 Bft)
05.12.2013 18:10 6,4 C 4,4 C 92 % 1008,60 hPa 0,0 l/m 0 min 2 min 0,0 UV-I 0 W/m 33,5 km/h (5 Bft)
05.12.2013 18:12 6,4 C 4,4 C 92 % 1008,40 hPa 0,0 l/m 0 min 2 min 0,0 UV-I 0 W/m 38,6 km/h (5 Bft)
05.12.2013 18:14 6,4 C 4,4 C 92 % 1008,30 hPa 0,2 l/m 0 min 2 min 0,0 UV-I 0 W/m 30,9 km/h (5 Bft)
05.12.2013 18:16 6,4 C 4,4 C 92 % 1008,40 hPa 0,0 l/m 0 min 2 min 0,0 UV-I 0 W/m 41,2 km/h (6 Bft)
05.12.2013 18:18 6,4 C 4,4 C 92 % 1008,40 hPa 0,0 l/m 0 min 2 min 0,0 UV-I 0 W/m 20,6 km/h (4 Bft)
05.12.2013 18:20 6,4 C 4,4 C 92 % 1008,60 hPa 0,0 l/m 0 min 2 min 0,0 UV-I 0 W/m 20,6 km/h (4 Bft)
05.12.2013 18:22 6,4 C 4,4 C 92 % 1008,70 hPa 0,0 l/m 0 min 2 min 0,0 UV-I 0 W/m 20,6 km/h (4 Bft)
05.12.2013 18:24 6,4 C 4,4 C 92 % 1008,70 hPa 0,0 l/m 0 min 2 min 0,0 UV-I 0 W/m 28,3 km/h (4 Bft)
05.12.2013 18:26 6,4 C 4,4 C 93 % 1008,80 hPa 0,0 l/m 0 min 2 min 0,0 UV-I 0 W/m 41,2 km/h (6 Bft)
05.12.2013 18:28 6,4 C 4,4 C 93 % 1008,70 hPa 0,0 l/m 0 min 2 min 0,0 UV-I 0 W/m 15,4 km/h (3 Bft)
05.12.2013 18:30 6,4 C 4,4 C 93 % 1008,80 hPa 0,0 l/m 0 min 2 min 0,0 UV-I 0 W/m 30,9 km/h (5 Bft)
05.12.2013 18:32 6,4 C 4,4 C 93 % 1008,80 hPa 0,0 l/m 0 min 2 min 0,0 UV-I 0 W/m 18,0 km/h (3 Bft)
05.12.2013 18:34 6,4 C 4,4 C 93 % 1009,10 hPa 0,0 l/m 0 min 2 min 0,0 UV-I 0 W/m 25,7 km/h (4 Bft)
05.12.2013 18:36 6,4 C 4,4 C 93 % 1009,00 hPa 0,0 l/m 0 min 2 min 0,0 UV-I 0 W/m 33,5 km/h (5 Bft)
05.12.2013 18:38 6,4 C 4,4 C 93 % 1008,70 hPa 0,0 l/m 0 min 2 min 0,0 UV-I 0 W/m 30,9 km/h (5 Bft)
05.12.2013 18:40 6,4 C 4,4 C 93 % 1009,10 hPa 0,0 l/m 0 min 2 min 0,0 UV-I 0 W/m 33,5 km/h (5 Bft)
05.12.2013 18:42 6,5 C 4,4 C 93 % 1009,20 hPa 0,0 l/m 0 min 2 min 0,0 UV-I 0 W/m 33,5 km/h (5 Bft)
05.12.2013 18:44 6,5 C 4,4 C 93 % 1009,50 hPa 0,2 l/m 0 min 2 min 0,0 UV-I 0 W/m 30,9 km/h (5 Bft)
05.12.2013 18:46 6,5 C 4,4 C 93 % 1009,30 hPa 0,2 l/m 0 min 2 min 0,0 UV-I 0 W/m 28,3 km/h (4 Bft)
05.12.2013 18:48 6,4 C 4,4 C 93 % 1009,00 hPa 0,0 l/m 0 min 2 min 0,0 UV-I 0 W/m 25,7 km/h (4 Bft)
05.12.2013 18:50 6,4 C 4,4 C 93 % 1009,20 hPa 0,0 l/m 0 min 2 min 0,0 UV-I 0 W/m 33,5 km/h (5 Bft)
05.12.2013 18:52 6,4 C 4,4 C 93 % 1009,20 hPa 0,0 l/m 0 min 2 min 0,0 UV-I 0 W/m 38,6 km/h (5 Bft)
05.12.2013 18:54 6,3 C 4,4 C 93 % 1009,30 hPa 0,0 l/m 0 min 2 min 0,0 UV-I 0 W/m 43,8 km/h (6 Bft)
05.12.2013 18:56 6,3 C 4,4 C 93 % 1009,20 hPa 0,2 l/m 0 min 2 min 0,0 UV-I 0 W/m 43,8 km/h (6 Bft)
05.12.2013 18:58 6,2 C 4,4 C 93 % 1009,20 hPa 0,0 l/m 0 min 2 min 0,0 UV-I 0 W/m 23,2 km/h (4 Bft)
05.12.2013 19:00 6,2 C 4,4 C 93 % 1009,40 hPa 0,0 l/m 0 min 2 min 0,0 UV-I 0 W/m 18,0 km/h (3 Bft)
05.12.2013 19:02 6,2 C 4,4 C 93 % 1009,20 hPa 0,0 l/m 0 min 2 min 0,0 UV-I 0 W/m 20,6 km/h (4 Bft)
05.12.2013 19:04 6,2 C 4,4 C 93 % 1009,40 hPa 0,0 l/m 0 min 2 min 0,0 UV-I 0 W/m 43,8 km/h (6 Bft)
05.12.2013 19:06 6,3 C 4,4 C 93 % 1009,30 hPa 0,0 l/m 0 min 2 min 0,0 UV-I 0 W/m 30,9 km/h (5 Bft)
05.12.2013 19:08 6,3 C 4,4 C 93 % 1009,30 hPa 0,0 l/m 0 min 2 min 0,0 UV-I 0 W/m 28,3 km/h (4 Bft)
05.12.2013 19:10 6,4 C 4,4 C 94 % 1009,50 hPa 0,0 l/m 0 min 2 min 0,0 UV-I 0 W/m 33,5 km/h (5 Bft)
05.12.2013 19:12 6,4 C 4,4 C 94 % 1009,30 hPa 0,0 l/m 0 min 2 min 0,0 UV-I 0 W/m 36,0 km/h (5 Bft)
05.12.2013 19:14 6,5 C 5,0 C 94 % 1009,60 hPa 0,2 l/m 0 min 2 min 0,0 UV-I 0 W/m 30,9 km/h (5 Bft)
05.12.2013 19:16 6,6 C 5,0 C 94 % 1009,60 hPa 0,2 l/m 0 min 2 min 0,0 UV-I 0 W/m 33,5 km/h (5 Bft)
05.12.2013 19:18 6,6 C 5,0 C 94 % 1009,50 hPa 0,2 l/m 0 min 2 min 0,0 UV-I 0 W/m 38,6 km/h (5 Bft)
05.12.2013 19:20 6,6 C 5,0 C 94 % 1009,70 hPa 0,0 l/m 0 min 2 min 0,0 UV-I 0 W/m 41,2 km/h (6 Bft)
05.12.2013 19:22 6,6 C 4,4 C 94 % 1009,90 hPa 0,0 l/m 0 min 2 min 0,0 UV-I 0 W/m 41,2 km/h (6 Bft)
05.12.2013 19:24 6,6 C 4,4 C 94 % 1009,80 hPa 0,0 l/m 0 min 2 min 0,0 UV-I 0 W/m 30,9 km/h (5 Bft)
05.12.2013 19:26 6,6 C 4,4 C 94 % 1009,80 hPa 0,0 l/m 0 min 2 min 0,0 UV-I 0 W/m 38,6 km/h (5 Bft)
05.12.2013 19:28 6,6 C 4,4 C 94 % 1009,70 hPa 0,0 l/m 0 min 0 min 0,0 UV-I 0 W/m 36,0 km/h (5 Bft)
05.12.2013 19:30 6,6 C 4,4 C 93 % 1009,90 hPa 0,0 l/m 0 min 0 min 0,0 UV-I 0 W/m 33,5 km/h (5 Bft)
05.12.2013 19:32 6,6 C 4,4 C 93 % 1010,00 hPa 0,0 l/m 0 min 0 min 0,0 UV-I 0 W/m 20,6 km/h (4 Bft)
05.12.2013 19:34 6,6 C 4,4 C 93 % 1009,90 hPa 0,0 l/m 0 min 0 min 0,0 UV-I 0 W/m 30,9 km/h (5 Bft)
05.12.2013 19:36 6,6 C 4,4 C 93 % 1009,90 hPa 0,0 l/m 0 min 0 min 0,0 UV-I 0 W/m 18,0 km/h (3 Bft)
05.12.2013 19:38 6,6 C 4,4 C 93 % 1010,10 hPa 0,0 l/m 0 min 2 min 0,0 UV-I 0 W/m 30,9 km/h (5 Bft)
05.12.2013 19:40 6,6 C 4,4 C 93 % 1010,10 hPa 0,0 l/m 0 min 2 min 0,0 UV-I 0 W/m 20,6 km/h (4 Bft)
05.12.2013 19:42 6,7 C 4,4 C 93 % 1010,30 hPa 0,0 l/m 0 min 2 min 0,0 UV-I 0 W/m 41,2 km/h (6 Bft)
05.12.2013 19:44 6,7 C 4,4 C 92 % 1010,00 hPa 0,0 l/m 0 min 2 min 0,0 UV-I 0 W/m 30,9 km/h (5 Bft)
05.12.2013 19:46 6,6 C 4,4 C 92 % 1010,40 hPa 0,0 l/m 0 min 2 min 0,0 UV-I 0 W/m 30,9 km/h (5 Bft)
05.12.2013 19:48 6,6 C 4,4 C 92 % 1010,60 hPa 0,0 l/m 0 min 2 min 0,0 UV-I 0 W/m 18,0 km/h (3 Bft)
05.12.2013 19:50 6,6 C 3,9 C 91 % 1010,80 hPa 0,4 l/m 0 min 2 min 0,0 UV-I 0 W/m 38,6 km/h (5 Bft)
05.12.2013 19:52 6,5 C 3,9 C 91 % 1010,80 hPa 0,0 l/m 0 min 2 min 0,0 UV-I 0 W/m 28,3 km/h (4 Bft)
05.12.2013 19:54 6,4 C 3,9 C 90 % 1010,90 hPa 0,0 l/m 0 min 2 min 0,0 UV-I 0 W/m 38,6 km/h (5 Bft)
05.12.2013 19:56 6,3 C 3,3 C 90 % 1011,20 hPa 0,0 l/m 0 min 0 min 0,0 UV-I 0 W/m 43,8 km/h (6 Bft)
05.12.2013 19:58 6,2 C 3,3 C 89 % 1011,60 hPa 0,0 l/m 0 min 0 min 0,0 UV-I 0 W/m 30,9 km/h (5 Bft)
05.12.2013 20:00 6,2 C 3,3 C 88 % 1011,70 hPa 0,0 l/m 0 min 0 min 0,0 UV-I 0 W/m 38,6 km/h (5 Bft)
05.12.2013 20:02 6,1 C 3,3 C 88 % 1011,70 hPa 0,0 l/m 0 min 0 min 0,0 UV-I 0 W/m 48,9 km/h (6 Bft)
05.12.2013 20:04 6,0 C 3,3 C 88 % 1011,90 hPa 0,0 l/m 0 min 0 min 0,0 UV-I 0 W/m 51,5 km/h (7 Bft)
05.12.2013 20:06 6,0 C 3,3 C 87 % 1011,90 hPa 0,0 l/m 0 min 2 min 0,0 UV-I 0 W/m 43,8 km/h (6 Bft)
05.12.2013 20:08 5,9 C 3,3 C 87 % 1012,10 hPa 0,0 l/m 0 min 0 min 0,0 UV-I 0 W/m 23,2 km/h (4 Bft)
05.12.2013 20:10 5,9 C 3,3 C 87 % 1011,90 hPa 0,0 l/m 0 min 0 min 0,0 UV-I 0 W/m 43,8 km/h (6 Bft)
05.12.2013 20:12 5,8 C 3,3 C 87 % 1012,20 hPa 0,0 l/m 0 min 0 min 0,0 UV-I 0 W/m 38,6 km/h (5 Bft)
05.12.2013 20:14 5,7 C 3,3 C 86 % 1012,20 hPa 0,0 l/m 0 min 0 min 0,0 UV-I 0 W/m 33,5 km/h (5 Bft)
05.12.2013 20:16 5,6 C 2,8 C 86 % 1012,20 hPa 0,0 l/m 0 min 0 min 0,0 UV-I 0 W/m 30,9 km/h (5 Bft)
05.12.2013 20:18 5,6 C 2,8 C 85 % 1012,30 hPa 0,0 l/m 0 min 0 min 0,0 UV-I 0 W/m 38,6 km/h (5 Bft)
05.12.2013 20:20 5,4 C 2,8 C 85 % 1012,50 hPa 0,0 l/m 0 min 0 min 0,0 UV-I 0 W/m 30,9 km/h (5 Bft)
05.12.2013 20:22 5,4 C 2,8 C 85 % 1012,50 hPa 0,0 l/m 0 min 0 min 0,0 UV-I 0 W/m 23,2 km/h (4 Bft)
05.12.2013 20:24 5,3 C 2,8 C 84 % 1012,60 hPa 0,0 l/m 0 min 0 min 0,0 UV-I 0 W/m 28,3 km/h (4 Bft)
05.12.2013 20:26 5,2 C 2,8 C 84 % 1012,60 hPa 0,0 l/m 0 min 0 min 0,0 UV-I 0 W/m 25,7 km/h (4 Bft)
05.12.2013 20:28 5,2 C 2,8 C 84 % 1012,80 hPa 0,0 l/m 0 min 0 min 0,0 UV-I 0 W/m 25,7 km/h (4 Bft)
05.12.2013 20:30 5,2 C 2,8 C 84 % 1012,60 hPa 0,0 l/m 0 min 0 min 0,0 UV-I 0 W/m 12,9 km/h (3 Bft)
05.12.2013 20:32 5,1 C 2,8 C 84 % 1012,80 hPa 0,0 l/m 0 min 0 min 0,0 UV-I 0 W/m 20,6 km/h (4 Bft)
05.12.2013 20:34 5,1 C 2,8 C 84 % 1012,70 hPa 0,0 l/m 0 min 0 min 0,0 UV-I 0 W/m 12,9 km/h (3 Bft)
05.12.2013 20:36 5,1 C 2,8 C 83 % 1012,80 hPa 0,0 l/m 0 min 0 min 0,0 UV-I 0 W/m 12,9 km/h (3 Bft)
05.12.2013 20:38 5,0 C 2,8 C 84 % 1012,80 hPa 0,0 l/m 0 min 0 min 0,0 UV-I 0 W/m 15,4 km/h (3 Bft)
05.12.2013 20:40 5,0 C 2,8 C 84 % 1013,00 hPa 0,0 l/m 0 min 2 min 0,0 UV-I 0 W/m 20,6 km/h (4 Bft)
05.12.2013 20:42 5,0 C 2,8 C 84 % 1013,00 hPa 0,0 l/m 0 min 0 min 0,0 UV-I 0 W/m 33,5 km/h (5 Bft)
05.12.2013 20:44 4,9 C 2,8 C 84 % 1012,90 hPa 0,0 l/m 0 min 0 min 0,0 UV-I 0 W/m 18,0 km/h (3 Bft)
05.12.2013 20:46 4,9 C 2,8 C 84 % 1013,30 hPa 0,0 l/m 0 min 2 min 0,0 UV-I 0 W/m 43,8 km/h (6 Bft)
05.12.2013 20:48 4,9 C 2,8 C 83 % 1013,00 hPa 0,0 l/m 0 min 0 min 0,0 UV-I 0 W/m 25,7 km/h (4 Bft)
05.12.2013 20:50 4,9 C 2,8 C 83 % 1013,00 hPa 0,0 l/m 0 min 0 min 0,0 UV-I 0 W/m 12,9 km/h (3 Bft)
05.12.2013 20:52 4,9 C 2,8 C 83 % 1013,20 hPa 0,0 l/m 0 min 0 min 0,0 UV-I 0 W/m 28,3 km/h (4 Bft)
05.12.2013 20:54 4,9 C 2,8 C 83 % 1012,90 hPa 0,0 l/m 0 min 0 min 0,0 UV-I 0 W/m 20,6 km/h (4 Bft)
05.12.2013 20:56 4,9 C 2,8 C 83 % 1013,10 hPa 0,0 l/m 0 min 0 min 0,0 UV-I 0 W/m 41,2 km/h (6 Bft)
05.12.2013 20:58 4,8 C 2,8 C 83 % 1013,00 hPa 0,0 l/m 0 min 0 min 0,0 UV-I 0 W/m 36,0 km/h (5 Bft)
05.12.2013 21:00 4,8 C 2,8 C 82 % 1013,10 hPa 0,0 l/m 0 min 0 min 0,0 UV-I 0 W/m 15,4 km/h (3 Bft)
05.12.2013 21:02 4,8 C 2,2 C 82 % 1013,00 hPa 0,0 l/m 0 min 0 min 0,0 UV-I 0 W/m 12,9 km/h (3 Bft)
05.12.2013 21:04 4,7 C 2,2 C 82 % 1013,20 hPa 0,0 l/m 0 min 0 min 0,0 UV-I 0 W/m 18,0 km/h (3 Bft)
05.12.2013 21:06 4,7 C 2,2 C 81 % 1013,10 hPa 0,0 l/m 0 min 0 min 0,0 UV-I 0 W/m 20,6 km/h (4 Bft)
05.12.2013 21:08 4,7 C 2,2 C 81 % 1013,20 hPa 0,0 l/m 0 min 0 min 0,0 UV-I 0 W/m 36,0 km/h (5 Bft)
05.12.2013 21:10 4,6 C 2,2 C 80 % 1013,20 hPa 0,0 l/m 0 min 0 min 0,0 UV-I 0 W/m 20,6 km/h (4 Bft)
05.12.2013 21:12 4,6 C 2,2 C 80 % 1013,20 hPa 0,0 l/m 0 min 0 min 0,0 UV-I 0 W/m 15,4 km/h (3 Bft)
05.12.2013 21:14 4,6 C 2,2 C 80 % 1013,30 hPa 0,0 l/m 0 min 0 min 0,0 UV-I 0 W/m 20,6 km/h (4 Bft)
05.12.2013 21:16 4,5 C 2,2 C 80 % 1013,20 hPa 0,0 l/m 0 min 0 min 0,0 UV-I 0 W/m 18,0 km/h (3 Bft)
05.12.2013 21:18 4,4 C 2,2 C 80 % 1013,20 hPa 0,0 l/m 0 min 0 min 0,0 UV-I 0 W/m 25,7 km/h (4 Bft)
05.12.2013 21:20 4,4 C 2,2 C 80 % 1013,30 hPa 0,0 l/m 0 min 0 min 0,0 UV-I 0 W/m 15,4 km/h (3 Bft)
05.12.2013 21:22 4,4 C 2,2 C 80 % 1013,30 hPa 0,0 l/m 0 min 0 min 0,0 UV-I 0 W/m 15,4 km/h (3 Bft)
05.12.2013 21:24 4,3 C 2,2 C 81 % 1013,50 hPa 0,0 l/m 0 min 0 min 0,0 UV-I 0 W/m 25,7 km/h (4 Bft)
05.12.2013 21:26 4,3 C 2,2 C 81 % 1013,60 hPa 0,0 l/m 0 min 0 min 0,0 UV-I 0 W/m 51,5 km/h (7 Bft)
05.12.2013 21:28 4,3 C 2,2 C 81 % 1013,60 hPa 0,0 l/m 0 min 0 min 0,0 UV-I 0 W/m 30,9 km/h (5 Bft)
05.12.2013 21:30 4,3 C 2,2 C 82 % 1013,60 hPa 0,0 l/m 0 min 2 min 0,0 UV-I 0 W/m 28,3 km/h (4 Bft)
05.12.2013 21:32 4,2 C 2,2 C 82 % 1013,70 hPa 0,0 l/m 0 min 2 min 0,0 UV-I 0 W/m 30,9 km/h (5 Bft)
05.12.2013 21:34 4,2 C 2,2 C 82 % 1013,80 hPa 0,0 l/m 0 min 2 min 0,0 UV-I 0 W/m 54,1 km/h (7 Bft)
05.12.2013 21:36 4,2 C 2,2 C 83 % 1014,10 hPa 0,0 l/m 0 min 0 min 0,0 UV-I 0 W/m 30,9 km/h (5 Bft)
05.12.2013 21:38 4,2 C 2,2 C 83 % 1013,90 hPa 0,0 l/m 0 min 0 min 0,0 UV-I 0 W/m 20,6 km/h (4 Bft)
05.12.2013 21:40 4,2 C 1,7 C 88 % 1014,00 hPa 0,0 l/m 0 min 0 min 0,0 UV-I 0 W/m 20,6 km/h (4 Bft)
05.12.2013 21:42 4,1 C 2,2 C 83 % 1014,00 hPa 0,0 l/m 0 min 0 min 0,0 UV-I 0 W/m 20,6 km/h (4 Bft)
05.12.2013 21:44 4,1 C 2,2 C 84 % 1014,00 hPa 0,0 l/m 0 min 0 min 0,0 UV-I 0 W/m 28,3 km/h (4 Bft)
05.12.2013 21:46 4,1 C 2,2 C 84 % 1014,00 hPa 0,0 l/m 0 min 0 min 0,0 UV-I 0 W/m 18,0 km/h (3 Bft)
05.12.2013 21:48 4,0 C 2,2 C 84 % 1014,00 hPa 0,0 l/m 0 min 0 min 0,0 UV-I 0 W/m 23,2 km/h (4 Bft)
05.12.2013 21:50 4,0 C 2,2 C 84 % 1014,00 hPa 0,0 l/m 0 min 0 min 0,0 UV-I 0 W/m 23,2 km/h (4 Bft)
05.12.2013 21:52 4,0 C 2,2 C 84 % 1014,00 hPa 0,0 l/m 0 min 0 min 0,0 UV-I 0 W/m 18,0 km/h (3 Bft)
05.12.2013 21:54 3,9 C 2,2 C 84 % 1014,10 hPa 0,0 l/m 0 min 0 min 0,0 UV-I 0 W/m 23,2 km/h (4 Bft)
05.12.2013 21:56 3,9 C 2,2 C 84 % 1014,00 hPa 0,0 l/m 0 min 0 min 0,0 UV-I 0 W/m 20,6 km/h (4 Bft)
05.12.2013 21:58 3,9 C 2,2 C 84 % 1014,10 hPa 0,0 l/m 0 min 0 min 0,0 UV-I 0 W/m 18,0 km/h (3 Bft)
05.12.2013 22:00 3,9 C 1,7 C 84 % 1014,10 hPa 0,0 l/m 0 min 0 min 0,0 UV-I 0 W/m 18,0 km/h (3 Bft)
05.12.2013 22:02 3,8 C 1,7 C 85 % 1014,20 hPa 0,0 l/m 0 min 0 min 0,0 UV-I 0 W/m 23,2 km/h (4 Bft)
05.12.2013 22:04 3,8 C 1,7 C 85 % 1014,10 hPa 0,0 l/m 0 min 0 min 0,0 UV-I 0 W/m 15,4 km/h (3 Bft)
05.12.2013 22:06 3,8 C 1,7 C 85 % 1014,20 hPa 0,0 l/m 0 min 0 min 0,0 UV-I 0 W/m 12,9 km/h (3 Bft)
05.12.2013 22:08 3,7 C 1,7 C 85 % 1014,30 hPa 0,0 l/m 0 min 0 min 0,0 UV-I 0 W/m 12,9 km/h (3 Bft)
05.12.2013 22:10 3,7 C 1,7 C 85 % 1014,30 hPa 0,0 l/m 0 min 0 min 0,0 UV-I 0 W/m 25,7 km/h (4 Bft)
05.12.2013 22:12 3,7 C 1,7 C 85 % 1014,20 hPa 0,0 l/m 0 min 0 min 0,0 UV-I 0 W/m 12,9 km/h (3 Bft)
05.12.2013 22:14 3,6 C 1,7 C 85 % 1014,20 hPa 0,0 l/m 0 min 0 min 0,0 UV-I 0 W/m 20,6 km/h (4 Bft)
05.12.2013 22:16 3,6 C 1,7 C 85 % 1014,30 hPa 0,0 l/m 0 min 0 min 0,0 UV-I 0 W/m 7,7 km/h (2 Bft)
05.12.2013 22:18 3,5 C 1,7 C 85 % 1014,40 hPa 0,0 l/m 0 min 0 min 0,0 UV-I 0 W/m 5,1 km/h (1 Bft)
05.12.2013 22:20 3,5 C 1,7 C 85 % 1014,30 hPa 0,0 l/m 0 min 0 min 0,0 UV-I 0 W/m 23,2 km/h (4 Bft)
05.12.2013 22:22 3,5 C 1,7 C 85 % 1014,40 hPa 0,0 l/m 0 min 0 min 0,0 UV-I 0 W/m 18,0 km/h (3 Bft)
05.12.2013 22:24 3,4 C 1,7 C 85 % 1014,40 hPa 0,0 l/m 0 min 0 min 0,0 UV-I 0 W/m 18,0 km/h (3 Bft)
05.12.2013 22:26 3,4 C 1,7 C 85 % 1014,30 hPa 0,0 l/m 0 min 0 min 0,0 UV-I 0 W/m 20,6 km/h (4 Bft)
05.12.2013 22:28 3,4 C 1,7 C 85 % 1014,30 hPa 0,0 l/m 0 min 0 min 0,0 UV-I 0 W/m 10,3 km/h (2 Bft)
05.12.2013 22:30 3,3 C 1,7 C 85 % 1014,40 hPa 0,0 l/m 0 min 0 min 0,0 UV-I 0 W/m 18,0 km/h (3 Bft)
05.12.2013 22:32 3,3 C 1,7 C 86 % 1014,40 hPa 0,0 l/m 0 min 0 min 0,0 UV-I 0 W/m 28,3 km/h (4 Bft)
05.12.2013 22:34 3,3 C 1,7 C 86 % 1014,50 hPa 0,0 l/m 0 min 0 min 0,0 UV-I 0 W/m 30,9 km/h (5 Bft)
05.12.2013 22:36 3,3 C 1,7 C 86 % 1014,40 hPa 0,0 l/m 0 min 0 min 0,0 UV-I 0 W/m 28,3 km/h (4 Bft)
05.12.2013 22:38 3,3 C 1,7 C 86 % 1014,70 hPa 0,0 l/m 0 min 0 min 0,0 UV-I 0 W/m 12,9 km/h (3 Bft)
05.12.2013 22:40 3,3 C 1,7 C 86 % 1014,50 hPa 0,0 l/m 0 min 2 min 0,0 UV-I 0 W/m 20,6 km/h (4 Bft)
05.12.2013 22:42 3,4 C 1,7 C 86 % 1014,50 hPa 0,0 l/m 0 min 2 min 0,0 UV-I 0 W/m 38,6 km/h (5 Bft)
05.12.2013 22:44 3,4 C 1,7 C 86 % 1014,60 hPa 0,0 l/m 0 min 2 min 0,0 UV-I 0 W/m 36,0 km/h (5 Bft)
05.12.2013 22:46 3,4 C 1,7 C 86 % 1014,50 hPa 0,0 l/m 0 min 0 min 0,0 UV-I 0 W/m 25,7 km/h (4 Bft)
05.12.2013 22:48 3,4 C 1,7 C 86 % 1014,60 hPa 0,0 l/m 0 min 0 min 0,0 UV-I 0 W/m 23,2 km/h (4 Bft)
05.12.2013 22:50 3,4 C 1,7 C 86 % 1014,70 hPa 0,0 l/m 0 min 0 min 0,0 UV-I 0 W/m 18,0 km/h (3 Bft)
05.12.2013 22:52 3,4 C 1,7 C 86 % 1014,70 hPa 0,0 l/m 0 min 0 min 0,0 UV-I 0 W/m 15,4 km/h (3 Bft)
05.12.2013 22:54 3,4 C 1,7 C 86 % 1014,70 hPa 0,0 l/m 0 min 0 min 0,0 UV-I 0 W/m 23,2 km/h (4 Bft)
05.12.2013 22:56 3,3 C 1,7 C 86 % 1014,70 hPa 0,0 l/m 0 min 0 min 0,0 UV-I 0 W/m 20,6 km/h (4 Bft)
05.12.2013 22:58 3,3 C 1,7 C 86 % 1014,80 hPa 0,0 l/m 0 min 0 min 0,0 UV-I 0 W/m 18,0 km/h (3 Bft)
05.12.2013 23:00 3,3 C 1,7 C 86 % 1014,90 hPa 0,0 l/m 0 min 0 min 0,0 UV-I 0 W/m 15,4 km/h (3 Bft)
05.12.2013 23:02 3,3 C 1,7 C 86 % 1014,90 hPa 0,0 l/m 0 min 0 min 0,0 UV-I 0 W/m 23,2 km/h (4 Bft)
05.12.2013 23:04 3,2 C 1,7 C 86 % 1014,90 hPa 0,0 l/m 0 min 2 min 0,0 UV-I 0 W/m 25,7 km/h (4 Bft)
05.12.2013 23:06 3,2 C 1,7 C 87 % 1014,90 hPa 0,0 l/m 0 min 0 min 0,0 UV-I 0 W/m 20,6 km/h (4 Bft)
05.12.2013 23:08 3,2 C 1,7 C 87 % 1014,90 hPa 0,0 l/m 0 min 0 min 0,0 UV-I 0 W/m 30,9 km/h (5 Bft)
05.12.2013 23:10 3,2 C 1,7 C 87 % 1014,90 hPa 0,0 l/m 0 min 0 min 0,0 UV-I 0 W/m 12,9 km/h (3 Bft)
05.12.2013 23:12 3,2 C 1,7 C 87 % 1014,90 hPa 0,0 l/m 0 min 0 min 0,0 UV-I 0 W/m 15,4 km/h (3 Bft)
05.12.2013 23:14 3,2 C 1,7 C 87 % 1014,90 hPa 0,0 l/m 0 min 0 min 0,0 UV-I 0 W/m 20,6 km/h (4 Bft)
05.12.2013 23:16 3,1 C 1,7 C 87 % 1015,00 hPa 0,0 l/m 0 min 0 min 0,0 UV-I 0 W/m 20,6 km/h (4 Bft)
05.12.2013 23:18 3,1 C 1,7 C 87 % 1014,90 hPa 0,0 l/m 0 min 0 min 0,0 UV-I 0 W/m 23,2 km/h (4 Bft)
05.12.2013 23:20 3,1 C 1,7 C 87 % 1015,00 hPa 0,0 l/m 0 min 0 min 0,0 UV-I 0 W/m 10,3 km/h (2 Bft)
05.12.2013 23:22 3,1 C 1,7 C 87 % 1015,00 hPa 0,0 l/m 0 min 0 min 0,0 UV-I 0 W/m 20,6 km/h (4 Bft)
05.12.2013 23:24 3,0 C 1,1 C 87 % 1014,90 hPa 0,0 l/m 0 min 0 min 0,0 UV-I 0 W/m 10,3 km/h (2 Bft)
05.12.2013 23:26 3,0 C 1,7 C 87 % 1015,10 hPa 0,0 l/m 0 min 0 min 0,0 UV-I 0 W/m 23,2 km/h (4 Bft)
05.12.2013 23:28 3,0 C 1,7 C 87 % 1015,10 hPa 0,0 l/m 0 min 0 min 0,0 UV-I 0 W/m 20,6 km/h (4 Bft)
05.12.2013 23:30 3,0 C 1,7 C 87 % 1015,10 hPa 0,0 l/m 0 min 0 min 0,0 UV-I 0 W/m 12,9 km/h (3 Bft)
05.12.2013 23:32 3,0 C 1,7 C 87 % 1015,10 hPa 0,0 l/m 0 min 0 min 0,0 UV-I 0 W/m 18,0 km/h (3 Bft)
05.12.2013 23:34 3,0 C 1,1 C 87 % 1015,10 hPa 0,0 l/m 0 min 0 min 0,0 UV-I 0 W/m 12,9 km/h (3 Bft)
05.12.2013 23:36 2,9 C 1,1 C 87 % 1015,10 hPa 0,0 l/m 0 min 0 min 0,0 UV-I 0 W/m 18,0 km/h (3 Bft)
05.12.2013 23:38 2,9 C 1,1 C 87 % 1015,20 hPa 0,0 l/m 0 min 0 min 0,0 UV-I 0 W/m 23,2 km/h (4 Bft)
05.12.2013 23:40 2,9 C 1,1 C 87 % 1015,10 hPa 0,0 l/m 0 min 0 min 0,0 UV-I 0 W/m 10,3 km/h (2 Bft)
05.12.2013 23:42 2,9 C 1,7 C 88 % 1015,10 hPa 0,0 l/m 0 min 0 min 0,0 UV-I 0 W/m 5,1 km/h (1 Bft)
05.12.2013 23:44 2,9 C 1,7 C 88 % 1015,10 hPa 0,0 l/m 0 min 0 min 0,0 UV-I 0 W/m 20,6 km/h (4 Bft)
05.12.2013 23:46 2,9 C 1,7 C 88 % 1015,10 hPa 0,0 l/m 0 min 2 min 0,0 UV-I 0 W/m 12,9 km/h (3 Bft)
05.12.2013 23:48 2,9 C 1,7 C 88 % 1015,10 hPa 0,0 l/m 0 min 0 min 0,0 UV-I 0 W/m 7,7 km/h (2 Bft)
05.12.2013 23:50 2,9 C 1,1 C 88 % 1015,20 hPa 0,0 l/m 0 min 0 min 0,0 UV-I 0 W/m 10,3 km/h (2 Bft)
05.12.2013 23:52 2,9 C 1,1 C 88 % 1015,20 hPa 0,0 l/m 0 min 0 min 0,0 UV-I 0 W/m 10,3 km/h (2 Bft)
05.12.2013 23:54 2,9 C 1,1 C 88 % 1015,20 hPa 0,0 l/m 0 min 0 min 0,0 UV-I 0 W/m 7,7 km/h (2 Bft)
05.12.2013 23:56 2,9 C 1,1 C 88 % 1015,20 hPa 0,0 l/m 0 min 0 min 0,0 UV-I 0 W/m 2,6 km/h (1 Bft)
05.12.2013 23:58 2,8 C 1,1 C 89 % 1015,10 hPa 0,0 l/m 0 min 0 min 0,0 UV-I 0 W/m 7,7 km/h (2 Bft)
_ Min-Zeit 04:05 01:14 21:10 18:14 - - - - - 00:00
Minimum _ 1,3 C 0,0 C 80 % 1008,30 hPa - - - - - 0,0 km/h (0 Bft)
_ Max-Zeit 19:42 19:14 07:20 00:00 19:50 08:46 01:28 00:00 10:50 14:02
Maximum _ 6,7 C 5,0 C 100 % 1029,00 hPa 0,4 l/m 2 min 2 min 0,0 UV-I 95 W/m 56,6 km/h
NW (7 Bft)
Durchschnitt _ 3,5 C 2,0 C 92 % 1019,27 hPa #3,4 l/m #26 min. #5:38 h 0,0 UV-I 45 W/m 18,0 km/h (3 Bft)
© 2013 W. Hausmann